Time,TemperatureF,DewpointF,PressureIn,WindDirection,WindDirectionDegrees,WindSpeedMPH,WindSpeedGustMPH,Humidity,HourlyPrecipIn,Conditions,Clouds,dailyrainin,SoftwareType,DateUTC
2013-01-12 00:00:00,37.2,36.4,29.30,SE,141,3.0,3.0,97,0.00,,,0.11,Wunderground v.1.13,2013-01-12 06:00:00,
2013-01-12 00:04:00,37.1,36.3,29.31,SW,227,2.0,3.0,97,0.00,,,0.00,Wunderground v.1.13,2013-01-12 06:04:00,
2013-01-12 00:06:00,37.0,36.2,29.30,SW,227,2.0,2.0,97,0.00,,,0.00,Wunderground v.1.13,2013-01-12 06:06:00,
2013-01-12 00:10:00,36.9,36.1,29.30,West,272,2.0,2.0,97,0.00,,,0.00,Wunderground v.1.13,2013-01-12 06:10:00,
2013-01-12 00:11:00,36.9,36.1,29.30,WSW,249,2.0,4.0,97,0.00,,,0.00,Wunderground v.1.13,2013-01-12 06:11:00,
2013-01-12 00:13:00,36.8,36.0,29.30,SSW,196,2.0,4.0,97,0.00,,,0.00,Wunderground v.1.13,2013-01-12 06:13:00,
2013-01-12 00:16:00,36.8,36.0,29.30,South,188,2.0,4.0,97,0.00,,,0.00,Wunderground v.1.13,2013-01-12 06:16:00,
2013-01-12 00:18:00,36.8,36.0,29.30,South,188,2.0,4.0,97,0.00,,,0.00,Wunderground v.1.13,2013-01-12 06:18:00,
2013-01-12 00:20:00,36.8,36.0,29.30,South,188,2.0,2.0,97,0.00,,,0.00,Wunderground v.1.13,2013-01-12 06:20:00,
2013-01-12 00:25:00,36.7,35.9,29.31,South,172,3.0,5.0,97,0.00,,,0.00,Wunderground v.1.13,2013-01-12 06:25:00,
2013-01-12 00:28:00,36.6,35.8,29.31,WSW,249,3.0,5.0,97,0.00,,,0.00,Wunderground v.1.13,2013-01-12 06:28:00,
2013-01-12 00:29:00,36.6,35.8,29.31,WSW,249,3.0,5.0,97,0.00,,,0.00,Wunderground v.1.13,2013-01-12 06:29:00,
2013-01-12 00:30:00,36.6,35.8,29.31,WSW,250,3.0,3.0,97,0.00,,,0.00,Wunderground v.1.13,2013-01-12 06:30:00,
2013-01-12 00:31:00,36.5,35.7,29.31,WSW,249,3.0,3.0,97,0.00,,,0.00,Wunderground v.1.13,2013-01-12 06:31:00,
2013-01-12 00:36:00,36.4,35.6,29.31,South,180,2.0,4.0,97,0.00,,,0.00,Wunderground v.1.13,2013-01-12 06:36:00,
2013-01-12 00:37:00,36.3,35.5,29.31,West,275,1.0,4.0,97,0.00,,,0.00,Wunderground v.1.13,2013-01-12 06:37:00,
2013-01-12 00:41:00,36.3,35.5,29.31,WSW,241,2.0,2.0,97,0.00,,,0.00,Wunderground v.1.13,2013-01-12 06:41:00,
2013-01-12 00:42:00,36.3,35.5,29.31,WSW,240,2.0,2.0,97,0.00,,,0.00,Wunderground v.1.13,2013-01-12 06:42:00,
2013-01-12 00:45:00,36.3,35.5,29.31,WSW,240,2.0,2.0,97,0.00,,,0.00,Wunderground v.1.13,2013-01-12 06:45:00,
2013-01-12 00:47:00,36.2,35.4,29.31,WSW,238,1.0,2.0,97,0.00,,,0.00,Wunderground v.1.13,2013-01-12 06:47:00,
2013-01-12 00:49:00,36.2,35.4,29.31,WSW,245,1.0,6.0,97,0.00,,,0.00,Wunderground v.1.13,2013-01-12 06:49:00,
2013-01-12 00:52:00,36.1,35.3,29.31,SSW,211,2.0,4.0,97,0.00,,,0.00,Wunderground v.1.13,2013-01-12 06:52:00,
2013-01-12 00:54:00,36.1,35.3,29.30,SSW,201,2.0,4.0,97,0.00,,,0.00,Wunderground v.1.13,2013-01-12 06:54:00,
2013-01-12 00:56:00,36.1,35.3,29.31,SSW,201,3.0,3.0,97,0.00,,,0.00,Wunderground v.1.13,2013-01-12 06:56:00,
2013-01-12 00:59:00,36.0,35.2,29.31,SSW,210,3.0,5.0,97,0.00,,,0.00,Wunderground v.1.13,2013-01-12 06:59:00,
2013-01-12 01:03:00,35.9,35.1,29.31,SSW,212,3.0,3.0,97,0.00,,,0.00,Wunderground v.1.13,2013-01-12 07:03:00,
2013-01-12 01:04:00,35.8,35.0,29.31,SW,225,3.0,3.0,97,0.00,,,0.00,Wunderground v.1.13,2013-01-12 07:04:00,
2013-01-12 01:05:00,35.8,35.0,29.31,South,179,3.0,3.0,97,0.00,,,0.00,Wunderground v.1.13,2013-01-12 07:05:00,
2013-01-12 01:07:00,35.8,35.0,29.31,SW,234,3.0,4.0,97,0.00,,,0.00,Wunderground v.1.13,2013-01-12 07:07:00,
2013-01-12 01:09:00,35.8,35.0,29.32,SW,234,2.0,4.0,97,0.00,,,0.00,Wunderground v.1.13,2013-01-12 07:09:00,
2013-01-12 01:13:00,35.8,35.0,29.32,SW,215,2.0,4.0,97,0.00,,,0.00,Wunderground v.1.13,2013-01-12 07:13:00,
2013-01-12 01:14:00,35.7,34.9,29.31,SW,214,2.0,4.0,97,0.00,,,0.00,Wunderground v.1.13,2013-01-12 07:14:00,
2013-01-12 01:17:00,35.7,34.9,29.32,SW,215,2.0,5.0,97,0.00,,,0.00,Wunderground v.1.13,2013-01-12 07:17:00,
2013-01-12 01:18:00,35.7,34.9,29.32,SW,214,2.0,5.0,97,0.00,,,0.00,Wunderground v.1.13,2013-01-12 07:18:00,
2013-01-12 01:22:00,35.6,34.8,29.32,WSW,238,2.0,4.0,97,0.00,,,0.00,Wunderground v.1.13,2013-01-12 07:22:00,
2013-01-12 01:23:00,35.6,34.8,29.32,WSW,238,2.0,4.0,97,0.00,,,0.00,Wunderground v.1.13,2013-01-12 07:23:00,
2013-01-12 01:26:00,35.5,34.7,29.32,SW,230,2.0,2.0,97,0.00,,,0.00,Wunderground v.1.13,2013-01-12 07:26:00,
2013-01-12 01:28:00,35.5,34.7,29.32,SW,223,2.0,2.0,97,0.00,,,0.00,Wunderground v.1.13,2013-01-12 07:28:00,
2013-01-12 01:32:00,35.4,34.6,29.33,SW,219,2.0,4.0,97,0.00,,,0.00,Wunderground v.1.13,2013-01-12 07:32:00,
2013-01-12 01:34:00,35.4,34.6,29.33,SW,227,2.0,4.0,97,0.00,,,0.00,Wunderground v.1.13,2013-01-12 07:34:00,
2013-01-12 01:37:00,35.3,34.5,29.34,SSW,205,3.0,8.0,97,0.00,,,0.00,Wunderground v.1.13,2013-01-12 07:37:00,
2013-01-12 01:41:00,35.2,34.4,29.34,SSW,209,3.0,3.0,97,0.00,,,0.00,Wunderground v.1.13,2013-01-12 07:41:00,
2013-01-12 01:43:00,35.2,34.4,29.34,SSW,210,3.0,5.0,97,0.00,,,0.00,Wunderground v.1.13,2013-01-12 07:43:00,
2013-01-12 01:45:00,35.1,34.3,29.34,SSW,207,4.0,5.0,97,0.00,,,0.00,Wunderground v.1.13,2013-01-12 07:45:00,
2013-01-12 01:50:00,35.0,34.2,29.34,SSW,192,4.0,4.0,97,0.00,,,0.00,Wunderground v.1.13,2013-01-12 07:50:00,
2013-01-12 01:51:00,35.0,34.2,29.34,South,191,4.0,4.0,97,0.00,,,0.00,Wunderground v.1.13,2013-01-12 07:51:00,
2013-01-12 01:53:00,34.9,34.1,29.35,SSW,193,4.0,5.0,97,0.00,,,0.00,Wunderground v.1.13,2013-01-12 07:53:00,
2013-01-12 01:59:00,34.8,34.0,29.35,SW,219,4.0,6.0,97,0.00,,,0.00,Wunderground v.1.13,2013-01-12 07:59:00,
2013-01-12 02:00:00,34.8,34.0,29.35,SSW,202,4.0,7.0,97,0.00,,,0.00,Wunderground v.1.13,2013-01-12 08:00:00,
2013-01-12 02:02:00,34.8,34.0,29.35,WSW,251,4.0,7.0,97,0.00,,,0.00,Wunderground v.1.13,2013-01-12 08:02:00,
2013-01-12 02:05:00,34.8,34.0,29.35,SSW,213,4.0,4.0,97,0.00,,,0.00,Wunderground v.1.13,2013-01-12 08:05:00,
2013-01-12 02:08:00,34.7,33.9,29.35,SSW,205,4.0,6.0,97,0.00,,,0.00,Wunderground v.1.13,2013-01-12 08:08:00,
2013-01-12 02:09:00,34.7,33.9,29.36,SW,230,4.0,6.0,97,0.00,,,0.00,Wunderground v.1.13,2013-01-12 08:09:00,
2013-01-12 02:10:00,34.6,33.8,29.36,SW,222,4.0,4.0,97,0.00,,,0.00,Wunderground v.1.13,2013-01-12 08:10:00,
2013-01-12 02:12:00,34.6,33.8,29.36,WSW,244,3.0,4.0,97,0.00,,,0.00,Wunderground v.1.13,2013-01-12 08:12:00,
2013-01-12 02:16:00,34.5,33.7,29.36,West,260,3.0,5.0,97,0.00,,,0.00,Wunderground v.1.13,2013-01-12 08:16:00,
2013-01-12 02:18:00,34.4,33.6,29.36,SW,226,3.0,5.0,97,0.00,,,0.00,Wunderground v.1.13,2013-01-12 08:18:00,
2013-01-12 02:19:00,34.3,33.5,29.36,SW,219,3.0,5.0,97,0.00,,,0.00,Wunderground v.1.13,2013-01-12 08:19:00,
2013-01-12 02:22:00,34.1,33.3,29.36,WSW,257,3.0,7.0,97,0.00,,,0.00,Wunderground v.1.13,2013-01-12 08:22:00,
2013-01-12 02:24:00,34.0,33.2,29.36,WSW,238,4.0,7.0,97,0.00,,,0.00,Wunderground v.1.13,2013-01-12 08:24:00,
2013-01-12 02:25:00,33.9,33.1,29.36,SSW,196,4.0,4.0,97,0.00,,,0.00,Wunderground v.1.13,2013-01-12 08:25:00,
2013-01-12 02:26:00,33.9,33.1,29.36,SW,223,4.0,4.0,97,0.00,,,0.00,Wunderground v.1.13,2013-01-12 08:26:00,
2013-01-12 02:28:00,33.8,33.0,29.36,SSW,210,4.0,4.0,97,0.00,,,0.00,Wunderground v.1.13,2013-01-12 08:28:00,
2013-01-12 02:31:00,33.7,32.9,29.36,WSW,248,5.0,5.0,97,0.00,,,0.00,Wunderground v.1.13,2013-01-12 08:31:00,
2013-01-12 02:32:00,33.6,32.8,29.36,SSE,167,5.0,5.0,97,0.00,,,0.00,Wunderground v.1.13,2013-01-12 08:32:00,
2013-01-12 02:33:00,33.6,32.8,29.36,SW,230,5.0,6.0,97,0.00,,,0.00,Wunderground v.1.13,2013-01-12 08:33:00,
2013-01-12 02:38:00,33.4,32.6,29.36,WSW,240,5.0,5.0,97,0.00,,,0.00,Wunderground v.1.13,2013-01-12 08:38:00,
2013-01-12 02:40:00,33.3,32.5,29.36,WSW,246,4.0,7.0,97,0.00,,,0.00,Wunderground v.1.13,2013-01-12 08:40:00,
2013-01-12 02:42:00,33.0,32.2,29.37,SW,229,5.0,7.0,97,0.00,,,0.00,Wunderground v.1.13,2013-01-12 08:42:00,
2013-01-12 02:43:00,32.9,32.1,29.37,WNW,288,5.0,7.0,97,0.00,,,0.00,Wunderground v.1.13,2013-01-12 08:43:00,
2013-01-12 02:44:00,32.8,32.0,29.37,West,271,5.0,7.0,97,0.00,,,0.00,Wunderground v.1.13,2013-01-12 08:44:00,
2013-01-12 02:47:00,32.6,31.8,29.37,WSW,257,5.0,5.0,97,0.00,,,0.00,Wunderground v.1.13,2013-01-12 08:47:00,
2013-01-12 02:50:00,32.4,31.6,29.38,SW,229,5.0,6.0,97,0.00,,,0.00,Wunderground v.1.13,2013-01-12 08:50:00,
2013-01-12 02:53:00,32.0,31.2,29.38,West,270,5.0,7.0,97,0.00,,,0.00,Wunderground v.1.13,2013-01-12 08:53:00,
2013-01-12 02:54:00,31.9,31.1,29.38,WSW,249,5.0,11.0,97,0.00,,,0.00,Wunderground v.1.13,2013-01-12 08:54:00,
2013-01-12 02:57:00,31.4,30.6,29.38,West,263,6.0,9.0,97,0.00,,,0.00,Wunderground v.1.13,2013-01-12 08:57:00,
2013-01-12 02:58:00,31.3,30.5,29.38,WSW,258,7.0,9.0,97,0.00,,,0.00,Wunderground v.1.13,2013-01-12 08:58:00,
2013-01-12 03:01:00,31.0,30.2,29.38,WNW,284,7.0,13.0,97,0.00,,,0.00,Wunderground v.1.13,2013-01-12 09:01:00,
2013-01-12 03:03:00,30.7,30.0,29.39,West,273,8.0,13.0,97,0.00,,,0.00,Wunderground v.1.13,2013-01-12 09:03:00,
2013-01-12 03:07:00,30.3,29.6,29.39,WSW,254,8.0,10.0,97,0.00,,,0.00,Wunderground v.1.13,2013-01-12 09:07:00,
2013-01-12 03:10:00,29.9,29.2,29.40,WSW,242,8.0,8.0,97,0.00,,,0.00,Wunderground v.1.13,2013-01-12 09:10:00,
2013-01-12 03:13:00,29.7,29.0,29.40,WSW,246,8.0,10.0,97,0.00,,,0.00,Wunderground v.1.13,2013-01-12 09:13:00,
2013-01-12 03:14:00,29.6,28.9,29.40,West,261,7.0,10.0,97,0.00,,,0.00,Wunderground v.1.13,2013-01-12 09:14:00,
2013-01-12 03:16:00,29.4,28.7,29.41,WSW,252,7.0,7.0,97,0.00,,,0.00,Wunderground v.1.13,2013-01-12 09:16:00,
2013-01-12 03:19:00,28.9,28.2,29.40,SW,234,7.0,10.0,97,0.00,,,0.00,Wunderground v.1.13,2013-01-12 09:19:00,
2013-01-12 03:22:00,28.4,27.4,29.41,West,271,7.0,10.0,96,0.00,,,0.00,Wunderground v.1.13,2013-01-12 09:22:00,
2013-01-12 03:24:00,28.0,27.0,29.41,WSW,248,8.0,10.0,96,0.00,,,0.00,Wunderground v.1.13,2013-01-12 09:24:00,
2013-01-12 03:26:00,27.6,26.6,29.41,SW,225,9.0,9.0,96,0.00,,,0.00,Wunderground v.1.13,2013-01-12 09:26:00,
2013-01-12 03:27:00,27.5,26.5,29.41,WSW,254,8.0,9.0,96,0.00,,,0.00,Wunderground v.1.13,2013-01-12 09:27:00,
2013-01-12 03:29:00,27.3,26.3,29.42,WSW,240,8.0,9.0,96,0.00,,,0.00,Wunderground v.1.13,2013-01-12 09:29:00,
2013-01-12 03:32:00,26.8,25.8,29.42,SW,236,9.0,14.0,96,0.00,,,0.00,Wunderground v.1.13,2013-01-12 09:32:00,
2013-01-12 03:33:00,26.6,25.6,29.42,West,264,8.0,14.0,96,0.00,,,0.00,Wunderground v.1.13,2013-01-12 09:33:00,
2013-01-12 03:38:00,25.8,24.8,29.42,SSW,211,9.0,11.0,96,0.00,,,0.00,Wunderground v.1.13,2013-01-12 09:38:00,
2013-01-12 03:39:00,25.6,24.6,29.43,SSW,207,9.0,11.0,96,0.00,,,0.00,Wunderground v.1.13,2013-01-12 09:39:00,
2013-01-12 03:42:00,25.3,24.1,29.43,WSW,254,8.0,9.0,95,0.00,,,0.00,Wunderground v.1.13,2013-01-12 09:42:00,
2013-01-12 03:43:00,25.2,24.0,29.43,SW,221,9.0,10.0,95,0.00,,,0.00,Wunderground v.1.13,2013-01-12 09:43:00,
2013-01-12 03:46:00,24.9,23.7,29.43,SW,221,8.0,8.0,95,0.00,,,0.00,Wunderground v.1.13,2013-01-12 09:46:00,
2013-01-12 03:47:00,24.9,23.7,29.43,WSW,245,8.0,8.0,95,0.00,,,0.00,Wunderground v.1.13,2013-01-12 09:47:00,
2013-01-12 03:53:00,24.5,23.3,29.44,WSW,243,7.0,16.0,95,0.00,,,0.00,Wunderground v.1.13,2013-01-12 09:53:00,
2013-01-12 03:55:00,24.2,22.7,29.44,WSW,251,8.0,16.0,94,0.00,,,0.00,Wunderground v.1.13,2013-01-12 09:55:00,
2013-01-12 03:58:00,24.0,22.5,29.45,WSW,257,8.0,18.0,94,0.00,,,0.00,Wunderground v.1.13,2013-01-12 09:58:00,
2013-01-12 04:01:00,23.7,22.2,29.45,West,261,9.0,14.0,94,0.00,,,0.00,Wunderground v.1.13,2013-01-12 10:01:00,
2013-01-12 04:04:00,23.4,21.7,29.45,West,263,8.0,15.0,93,0.00,,,0.00,Wunderground v.1.13,2013-01-12 10:04:00,
2013-01-12 04:05:00,23.2,21.5,29.45,SW,215,8.0,8.0,93,0.00,,,0.00,Wunderground v.1.13,2013-01-12 10:05:00,
2013-01-12 04:06:00,23.2,21.5,29.46,WSW,242,8.0,8.0,93,0.00,,,0.00,Wunderground v.1.13,2013-01-12 10:06:00,
2013-01-12 04:08:00,23.0,21.3,29.46,WSW,255,8.0,8.0,93,0.00,,,0.00,Wunderground v.1.13,2013-01-12 10:08:00,
2013-01-12 04:10:00,22.8,21.1,29.46,SW,234,7.0,7.0,93,0.00,,,0.00,Wunderground v.1.13,2013-01-12 10:10:00,
2013-01-12 04:11:00,22.7,21.0,29.46,SW,233,7.0,12.0,93,0.00,,,0.00,Wunderground v.1.13,2013-01-12 10:11:00,
2013-01-12 04:12:00,22.6,20.9,29.47,WSW,252,7.0,21.0,93,0.00,,,0.00,Wunderground v.1.13,2013-01-12 10:12:00,
2013-01-12 04:14:00,22.3,20.6,29.47,SSW,199,7.0,21.0,93,0.00,,,0.00,Wunderground v.1.13,2013-01-12 10:14:00,
2013-01-12 04:18:00,22.0,20.3,29.47,SW,234,7.0,7.0,93,0.00,,,0.00,Wunderground v.1.13,2013-01-12 10:18:00,
2013-01-12 04:20:00,22.0,20.3,29.47,WSW,243,6.0,6.0,93,0.00,,,0.00,Wunderground v.1.13,2013-01-12 10:20:00,
2013-01-12 04:24:00,21.8,20.1,29.47,West,267,5.0,9.0,93,0.00,,,0.00,Wunderground v.1.13,2013-01-12 10:24:00,
2013-01-12 04:25:00,21.7,20.0,29.47,South,178,4.0,4.0,93,0.00,,,0.00,Wunderground v.1.13,2013-01-12 10:25:00,
2013-01-12 04:27:00,21.6,19.9,29.48,WSW,245,4.0,7.0,93,0.00,,,0.00,Wunderground v.1.13,2013-01-12 10:27:00,
2013-01-12 04:30:00,21.3,19.3,29.48,WSW,247,5.0,5.0,92,0.00,,,0.00,Wunderground v.1.13,2013-01-12 10:30:00,
2013-01-12 04:31:00,21.3,19.3,29.49,WSW,243,5.0,10.0,92,0.00,,,0.00,Wunderground v.1.13,2013-01-12 10:31:00,
2013-01-12 04:33:00,21.1,19.1,29.48,West,263,6.0,12.0,92,0.00,,,0.00,Wunderground v.1.13,2013-01-12 10:33:00,
2013-01-12 04:37:00,20.6,18.4,29.49,WSW,238,8.0,8.0,91,0.00,,,0.00,Wunderground v.1.13,2013-01-12 10:37:00,
2013-01-12 04:40:00,20.4,18.2,29.49,SSW,205,8.0,8.0,91,0.00,,,0.00,Wunderground v.1.13,2013-01-12 10:40:00,
2013-01-12 04:42:00,20.2,18.0,29.50,WSW,242,9.0,14.0,91,0.00,,,0.00,Wunderground v.1.13,2013-01-12 10:42:00,
2013-01-12 04:44:00,20.1,17.6,29.50,WSW,242,9.0,14.0,90,0.00,,,0.00,Wunderground v.1.13,2013-01-12 10:44:00,
2013-01-12 04:50:00,19.7,17.2,29.50,WSW,252,9.0,9.0,90,0.00,,,0.00,Wunderground v.1.13,2013-01-12 10:50:00,
2013-01-12 04:51:00,19.7,17.2,29.50,SSW,211,8.0,9.0,90,0.00,,,0.00,Wunderground v.1.13,2013-01-12 10:51:00,
2013-01-12 04:56:00,19.8,17.3,29.51,West,270,6.0,7.0,90,0.00,,,0.00,Wunderground v.1.13,2013-01-12 10:56:00,
2013-01-12 05:01:00,19.4,16.9,29.52,SSW,207,5.0,10.0,90,0.00,,,0.00,Wunderground v.1.13,2013-01-12 11:01:00,
2013-01-12 05:02:00,19.3,16.8,29.52,WSW,256,6.0,10.0,90,0.00,,,0.00,Wunderground v.1.13,2013-01-12 11:02:00,
2013-01-12 05:06:00,18.9,16.2,29.52,WSW,248,8.0,10.0,89,0.00,,,0.00,Wunderground v.1.13,2013-01-12 11:06:00,
2013-01-12 05:08:00,18.8,15.8,29.53,SW,216,9.0,10.0,88,0.00,,,0.00,Wunderground v.1.13,2013-01-12 11:08:00,
2013-01-12 05:09:00,18.6,15.6,29.53,SW,222,9.0,12.0,88,0.00,,,0.00,Wunderground v.1.13,2013-01-12 11:09:00,
2013-01-12 05:12:00,18.4,15.4,29.53,WSW,250,10.0,13.0,88,0.00,,,0.00,Wunderground v.1.13,2013-01-12 11:12:00,
2013-01-12 05:15:00,18.2,15.2,29.54,SW,225,10.0,10.0,88,0.00,,,0.00,Wunderground v.1.13,2013-01-12 11:15:00,
2013-01-12 05:18:00,18.1,15.1,29.54,WSW,254,10.0,18.0,88,0.00,,,0.00,Wunderground v.1.13,2013-01-12 11:18:00,
2013-01-12 05:20:00,17.9,14.7,29.55,WSW,242,10.0,10.0,87,0.00,,,0.00,Wunderground v.1.13,2013-01-12 11:20:00,
2013-01-12 05:21:00,17.9,14.7,29.55,WSW,257,10.0,10.0,87,0.00,,,0.00,Wunderground v.1.13,2013-01-12 11:21:00,
2013-01-12 05:23:00,17.8,14.6,29.55,WSW,253,10.0,10.0,87,0.00,,,0.00,Wunderground v.1.13,2013-01-12 11:23:00,
2013-01-12 05:27:00,17.7,14.5,29.55,SW,230,9.0,10.0,87,0.00,,,0.00,Wunderground v.1.13,2013-01-12 11:27:00,
2013-01-12 05:28:00,17.7,14.8,29.55,West,264,9.0,20.0,88,0.00,,,0.00,Wunderground v.1.13,2013-01-12 11:28:00,
2013-01-12 05:29:00,17.7,14.5,29.55,SW,224,8.0,20.0,87,0.00,,,0.00,Wunderground v.1.13,2013-01-12 11:29:00,
2013-01-12 05:31:00,17.5,14.6,29.55,WSW,252,8.0,8.0,88,0.00,,,0.00,Wunderground v.1.13,2013-01-12 11:31:00,
2013-01-12 05:33:00,17.5,14.6,29.56,SW,227,8.0,8.0,88,0.00,,,0.00,Wunderground v.1.13,2013-01-12 11:33:00,
2013-01-12 05:36:00,17.3,14.4,29.56,West,266,8.0,13.0,88,0.00,,,0.00,Wunderground v.1.13,2013-01-12 11:36:00,
2013-01-12 05:39:00,17.2,14.3,29.56,West,269,8.0,13.0,88,0.00,,,0.00,Wunderground v.1.13,2013-01-12 11:39:00,
2013-01-12 05:40:00,17.1,14.2,29.56,WSW,244,8.0,8.0,88,0.00,,,0.00,Wunderground v.1.13,2013-01-12 11:40:00,
2013-01-12 05:42:00,17.0,14.1,29.56,West,278,8.0,13.0,88,0.00,,,0.00,Wunderground v.1.13,2013-01-12 11:42:00,
2013-01-12 05:43:00,16.9,14.0,29.56,WSW,247,8.0,13.0,88,0.00,,,0.00,Wunderground v.1.13,2013-01-12 11:43:00,
2013-01-12 05:46:00,16.7,13.8,29.56,WNW,296,8.0,9.0,88,0.00,,,0.00,Wunderground v.1.13,2013-01-12 11:46:00,
2013-01-12 05:48:00,16.5,13.3,29.57,WSW,250,8.0,9.0,87,0.00,,,0.00,Wunderground v.1.13,2013-01-12 11:48:00,
2013-01-12 05:50:00,16.5,13.6,29.57,WSW,238,9.0,11.0,88,0.00,,,0.00,Wunderground v.1.13,2013-01-12 11:50:00,
2013-01-12 05:51:00,16.4,13.5,29.57,West,265,9.0,11.0,88,0.00,,,0.00,Wunderground v.1.13,2013-01-12 11:51:00,
2013-01-12 05:53:00,16.4,13.2,29.57,WNW,283,10.0,16.0,87,0.00,,,0.00,Wunderground v.1.13,2013-01-12 11:53:00,
2013-01-12 05:56:00,16.3,13.1,29.57,West,259,10.0,10.0,87,0.00,,,0.00,Wunderground v.1.13,2013-01-12 11:56:00,
2013-01-12 05:59:00,16.2,13.0,29.57,WSW,242,9.0,12.0,87,0.00,,,0.00,Wunderground v.1.13,2013-01-12 11:59:00,
2013-01-12 06:00:00,16.2,13.0,29.57,SSW,207,9.0,9.0,87,0.00,,,0.00,Wunderground v.1.13,2013-01-12 12:00:00,
2013-01-12 06:02:00,16.2,13.0,29.58,WSW,252,8.0,9.0,87,0.00,,,0.00,Wunderground v.1.13,2013-01-12 12:02:00,
2013-01-12 06:03:00,16.2,13.0,29.58,WSW,237,8.0,9.0,87,0.00,,,0.00,Wunderground v.1.13,2013-01-12 12:03:00,
2013-01-12 06:07:00,16.1,12.9,29.59,WSW,242,8.0,9.0,87,0.00,,,0.00,Wunderground v.1.13,2013-01-12 12:07:00,
2013-01-12 06:13:00,15.8,12.6,29.59,SSW,209,8.0,12.0,87,0.00,,,0.00,Wunderground v.1.13,2013-01-12 12:13:00,
2013-01-12 06:14:00,15.8,12.6,29.59,WSW,246,9.0,12.0,87,0.00,,,0.00,Wunderground v.1.13,2013-01-12 12:14:00,
2013-01-12 06:15:00,15.8,12.6,29.59,West,271,8.0,8.0,87,0.00,,,0.00,Wunderground v.1.13,2013-01-12 12:15:00,
2013-01-12 06:16:00,15.8,12.6,29.59,SW,214,8.0,8.0,87,0.00,,,0.00,Wunderground v.1.13,2013-01-12 12:16:00,
2013-01-12 06:19:00,15.8,12.6,29.60,West,262,8.0,12.0,87,0.00,,,0.00,Wunderground v.1.13,2013-01-12 12:19:00,
2013-01-12 06:20:00,15.7,12.5,29.60,West,261,8.0,8.0,87,0.00,,,0.00,Wunderground v.1.13,2013-01-12 12:20:00,
2013-01-12 06:22:00,15.8,12.6,29.60,WSW,252,7.0,8.0,87,0.00,,,0.00,Wunderground v.1.13,2013-01-12 12:22:00,
2013-01-12 06:23:00,15.8,12.6,29.60,SW,236,7.0,8.0,87,0.00,,,0.00,Wunderground v.1.13,2013-01-12 12:23:00,
2013-01-12 06:26:00,15.8,12.6,29.60,SW,225,8.0,13.0,87,0.00,,,0.00,Wunderground v.1.13,2013-01-12 12:26:00,
2013-01-12 06:28:00,15.7,12.5,29.60,SW,219,8.0,13.0,87,0.00,,,0.00,Wunderground v.1.13,2013-01-12 12:28:00,
2013-01-12 06:29:00,15.7,12.5,29.61,WSW,239,8.0,13.0,87,0.00,,,0.00,Wunderground v.1.13,2013-01-12 12:29:00,
2013-01-12 06:33:00,15.7,12.5,29.61,WSW,254,8.0,8.0,87,0.00,,,0.00,Wunderground v.1.13,2013-01-12 12:33:00,
2013-01-12 06:36:00,15.6,12.4,29.62,WSW,244,8.0,13.0,87,0.00,,,0.00,Wunderground v.1.13,2013-01-12 12:36:00,
2013-01-12 06:39:00,15.5,12.1,29.62,WSW,244,8.0,13.0,86,0.00,,,0.00,Wunderground v.1.13,2013-01-12 12:39:00,
2013-01-12 06:40:00,15.5,12.1,29.62,WSW,244,8.0,14.0,86,0.00,,,0.00,Wunderground v.1.13,2013-01-12 12:40:00,
2013-01-12 06:45:00,15.4,12.0,29.62,WSW,246,9.0,9.0,86,0.00,,,0.00,Wunderground v.1.13,2013-01-12 12:45:00,
2013-01-12 06:47:00,15.4,12.0,29.63,WSW,246,8.0,9.0,86,0.00,,,0.00,Wunderground v.1.13,2013-01-12 12:47:00,
2013-01-12 06:48:00,15.5,12.1,29.63,WSW,248,8.0,9.0,86,0.00,,,0.00,Wunderground v.1.13,2013-01-12 12:48:00,
2013-01-12 06:53:00,15.4,12.0,29.63,WSW,244,7.0,16.0,86,0.00,,,0.00,Wunderground v.1.13,2013-01-12 12:53:00,
2013-01-12 06:54:00,15.4,12.0,29.63,WSW,246,7.0,16.0,86,0.00,,,0.00,Wunderground v.1.13,2013-01-12 12:54:00,
2013-01-12 06:55:00,15.4,12.0,29.63,SW,221,8.0,9.0,86,0.00,,,0.00,Wunderground v.1.13,2013-01-12 12:55:00,
2013-01-12 07:00:00,15.4,12.0,29.64,WSW,246,8.0,8.0,86,0.00,,,0.00,Wunderground v.1.13,2013-01-12 13:00:00,
2013-01-12 07:01:00,15.4,12.0,29.64,West,260,8.0,8.0,86,0.00,,,0.00,Wunderground v.1.13,2013-01-12 13:01:00,
2013-01-12 07:06:00,15.4,12.0,29.65,West,262,7.0,9.0,86,0.00,,,0.00,Wunderground v.1.13,2013-01-12 13:06:00,
2013-01-12 07:07:00,15.4,12.0,29.65,WSW,246,7.0,14.0,86,0.00,,,0.00,Wunderground v.1.13,2013-01-12 13:07:00,
2013-01-12 07:12:00,15.2,11.2,29.65,WSW,254,9.0,11.0,84,0.00,,,0.00,Wunderground v.1.13,2013-01-12 13:12:00,
2013-01-12 07:13:00,15.1,11.1,29.66,WSW,244,9.0,11.0,84,0.00,,,0.00,Wunderground v.1.13,2013-01-12 13:13:00,
2013-01-12 07:16:00,15.1,11.1,29.66,West,269,9.0,10.0,84,0.00,,,0.00,Wunderground v.1.13,2013-01-12 13:16:00,
2013-01-12 07:19:00,14.9,10.9,29.66,West,263,10.0,13.0,84,0.00,,,0.00,Wunderground v.1.13,2013-01-12 13:19:00,
2013-01-12 07:20:00,14.8,10.8,29.66,West,263,10.0,16.0,84,0.00,,,0.00,Wunderground v.1.13,2013-01-12 13:20:00,
2013-01-12 07:22:00,14.7,10.5,29.66,WSW,248,11.0,16.0,83,0.00,,,0.00,Wunderground v.1.13,2013-01-12 13:22:00,
2013-01-12 07:25:00,14.7,10.5,29.66,SSW,213,12.0,13.0,83,0.00,,,0.00,Wunderground v.1.13,2013-01-12 13:25:00,
2013-01-12 07:28:00,14.7,10.7,29.67,SSW,193,11.0,13.0,84,0.00,,,0.00,Wunderground v.1.13,2013-01-12 13:28:00,
2013-01-12 07:29:00,14.7,10.7,29.67,WSW,258,10.0,13.0,84,0.00,,,0.00,Wunderground v.1.13,2013-01-12 13:29:00,
2013-01-12 07:30:00,14.7,10.7,29.67,SW,232,10.0,10.0,84,0.00,,,0.00,Wunderground v.1.13,2013-01-12 13:30:00,
2013-01-12 07:35:00,14.7,10.7,29.68,WSW,250,7.0,8.0,84,0.00,,,0.00,Wunderground v.1.13,2013-01-12 13:35:00,
2013-01-12 07:37:00,14.7,10.7,29.68,WSW,245,7.0,9.0,84,0.00,,,0.00,Wunderground v.1.13,2013-01-12 13:37:00,
2013-01-12 07:41:00,14.5,10.3,29.68,SW,220,6.0,19.0,83,0.00,,,0.00,Wunderground v.1.13,2013-01-12 13:41:00,
2013-01-12 07:42:00,14.4,10.2,29.69,South,184,7.0,19.0,83,0.00,,,0.00,Wunderground v.1.13,2013-01-12 13:42:00,
2013-01-12 07:47:00,14.3,10.4,29.69,West,267,7.0,20.0,84,0.00,,,0.00,Wunderground v.1.13,2013-01-12 13:47:00,
2013-01-12 07:48:00,14.3,10.4,29.69,West,265,8.0,20.0,84,0.00,,,0.00,Wunderground v.1.13,2013-01-12 13:48:00,
2013-01-12 07:50:00,14.2,10.0,29.69,West,275,8.0,8.0,83,0.00,,,0.00,Wunderground v.1.13,2013-01-12 13:50:00,
2013-01-12 07:51:00,14.1,9.9,29.69,WSW,250,7.0,8.0,83,0.00,,,0.00,Wunderground v.1.13,2013-01-12 13:51:00,
2013-01-12 07:55:00,14.0,9.8,29.70,West,265,7.0,7.0,83,0.00,,,0.00,Wunderground v.1.13,2013-01-12 13:55:00,
2013-01-12 07:56:00,13.9,9.7,29.70,SW,228,7.0,7.0,83,0.00,,,0.00,Wunderground v.1.13,2013-01-12 13:56:00,
2013-01-12 07:58:00,13.9,10.0,29.70,South,176,6.0,7.0,84,0.00,,,0.00,Wunderground v.1.13,2013-01-12 13:58:00,
2013-01-12 07:59:00,13.9,10.0,29.70,West,270,6.0,11.0,84,0.00,,,0.00,Wunderground v.1.13,2013-01-12 13:59:00,
2013-01-12 08:00:00,13.8,9.6,29.70,WSW,246,6.0,7.0,83,0.00,,,0.00,Wunderground v.1.13,2013-01-12 14:00:00,
2013-01-12 08:01:00,13.8,9.6,29.70,WSW,243,6.0,10.0,83,0.00,,,0.00,Wunderground v.1.13,2013-01-12 14:01:00,
2013-01-12 08:04:00,13.6,9.4,29.70,WSW,237,7.0,10.0,83,0.00,,,0.00,Wunderground v.1.13,2013-01-12 14:04:00,
2013-01-12 08:06:00,13.6,9.4,29.71,West,262,7.0,8.0,83,0.00,,,0.00,Wunderground v.1.13,2013-01-12 14:06:00,
2013-01-12 08:11:00,13.5,9.6,29.71,WSW,258,7.0,8.0,84,0.00,,,0.00,Wunderground v.1.13,2013-01-12 14:11:00,
2013-01-12 08:12:00,13.5,9.6,29.71,WSW,246,7.0,8.0,84,0.00,,,0.00,Wunderground v.1.13,2013-01-12 14:12:00,
2013-01-12 08:13:00,13.5,9.6,29.71,SW,215,7.0,8.0,84,0.00,,,0.00,Wunderground v.1.13,2013-01-12 14:13:00,
2013-01-12 08:17:00,13.4,9.2,29.72,WSW,257,7.0,12.0,83,0.00,,,0.00,Wunderground v.1.13,2013-01-12 14:17:00,
2013-01-12 08:18:00,13.4,9.2,29.72,WSW,257,8.0,12.0,83,0.00,,,0.00,Wunderground v.1.13,2013-01-12 14:18:00,
2013-01-12 08:24:00,13.4,9.2,29.72,West,265,8.0,8.0,83,0.00,,,0.00,Wunderground v.1.13,2013-01-12 14:24:00,
2013-01-12 08:25:00,13.4,9.2,29.72,WSW,250,8.0,8.0,83,0.00,,,0.00,Wunderground v.1.13,2013-01-12 14:25:00,
2013-01-12 08:27:00,13.4,9.2,29.72,West,269,7.0,9.0,83,0.00,,,0.00,Wunderground v.1.13,2013-01-12 14:27:00,
2013-01-12 08:30:00,13.4,9.2,29.72,West,259,7.0,11.0,83,0.00,,,0.00,Wunderground v.1.13,2013-01-12 14:30:00,
2013-01-12 08:31:00,13.4,9.2,29.72,WSW,249,8.0,11.0,83,0.00,,,0.00,Wunderground v.1.13,2013-01-12 14:31:00,
2013-01-12 08:36:00,13.3,8.8,29.73,WSW,248,9.0,11.0,82,0.00,,,0.00,Wunderground v.1.13,2013-01-12 14:36:00,
2013-01-12 08:37:00,13.2,8.7,29.73,WSW,240,9.0,14.0,82,0.00,,,0.00,Wunderground v.1.13,2013-01-12 14:37:00,
2013-01-12 08:38:00,13.2,8.5,29.73,WSW,250,10.0,14.0,81,0.00,,,0.00,Wunderground v.1.13,2013-01-12 14:38:00,
2013-01-12 08:41:00,13.1,8.4,29.73,WSW,251,10.0,12.0,81,0.00,,,0.00,Wunderground v.1.13,2013-01-12 14:41:00,
2013-01-12 08:42:00,13.0,8.3,29.74,WSW,250,9.0,12.0,81,0.00,,,0.00,Wunderground v.1.13,2013-01-12 14:42:00,
2013-01-12 08:45:00,13.0,8.3,29.74,WSW,248,9.0,9.0,81,0.00,,,0.00,Wunderground v.1.13,2013-01-12 14:45:00,
2013-01-12 08:46:00,13.0,8.3,29.74,West,259,9.0,9.0,81,0.00,,,0.00,Wunderground v.1.13,2013-01-12 14:46:00,
2013-01-12 08:47:00,13.0,8.3,29.74,WSW,254,9.0,11.0,81,0.00,,,0.00,Wunderground v.1.13,2013-01-12 14:47:00,
2013-01-12 08:51:00,12.9,8.4,29.75,WSW,254,8.0,8.0,82,0.00,,,0.00,Wunderground v.1.13,2013-01-12 14:51:00,
2013-01-12 08:52:00,12.9,8.4,29.75,West,260,8.0,8.0,82,0.00,,,0.00,Wunderground v.1.13,2013-01-12 14:52:00,
2013-01-12 08:53:00,12.9,8.4,29.75,West,259,8.0,8.0,82,0.00,,,0.00,Wunderground v.1.13,2013-01-12 14:53:00,
2013-01-12 08:54:00,12.9,8.4,29.75,WSW,254,8.0,8.0,82,0.00,,,0.00,Wunderground v.1.13,2013-01-12 14:54:00,
2013-01-12 08:59:00,12.9,8.2,29.74,WSW,246,8.0,11.0,81,0.00,,,0.00,Wunderground v.1.13,2013-01-12 14:59:00,
2013-01-12 09:00:00,12.9,8.2,29.75,WSW,249,8.0,8.0,81,0.00,,,0.00,Wunderground v.1.13,2013-01-12 15:00:00,
2013-01-12 09:02:00,13.0,8.3,29.74,WSW,242,8.0,8.0,81,0.00,,,0.00,Wunderground v.1.13,2013-01-12 15:02:00,
2013-01-12 09:04:00,12.9,7.9,29.74,WSW,242,9.0,12.0,80,0.00,,,0.00,Wunderground v.1.13,2013-01-12 15:04:00,
2013-01-12 09:05:00,12.9,7.9,29.74,SW,232,9.0,12.0,80,0.00,,,0.00,Wunderground v.1.13,2013-01-12 15:05:00,
2013-01-12 09:08:00,12.6,7.3,29.75,WSW,237,9.0,15.0,79,0.00,,,0.00,Wunderground v.1.13,2013-01-12 15:08:00,
2013-01-12 09:11:00,12.4,7.1,29.75,WSW,237,10.0,10.0,79,0.00,,,0.00,Wunderground v.1.13,2013-01-12 15:11:00,
2013-01-12 09:15:00,12.3,7.3,29.75,West,273,10.0,10.0,80,0.00,,,0.00,Wunderground v.1.13,2013-01-12 15:15:00,
2013-01-12 09:17:00,12.3,7.3,29.75,SW,227,9.0,10.0,80,0.00,,,0.00,Wunderground v.1.13,2013-01-12 15:17:00,
2013-01-12 09:19:00,12.4,7.4,29.75,West,263,9.0,13.0,80,0.00,,,0.00,Wunderground v.1.13,2013-01-12 15:19:00,
2013-01-12 09:20:00,12.4,7.4,29.75,WSW,238,9.0,9.0,80,0.00,,,0.00,Wunderground v.1.13,2013-01-12 15:20:00,
2013-01-12 09:24:00,12.4,7.1,29.76,West,270,8.0,14.0,79,0.00,,,0.00,Wunderground v.1.13,2013-01-12 15:24:00,
2013-01-12 09:25:00,12.3,7.0,29.76,WSW,245,8.0,8.0,79,0.00,,,0.00,Wunderground v.1.13,2013-01-12 15:25:00,
2013-01-12 09:30:00,12.1,6.8,29.76,WSW,246,8.0,8.0,79,0.00,,,0.00,Wunderground v.1.13,2013-01-12 15:30:00,
2013-01-12 09:31:00,12.1,6.8,29.76,West,259,8.0,8.0,79,0.00,,,0.00,Wunderground v.1.13,2013-01-12 15:31:00,
2013-01-12 09:32:00,12.1,6.8,29.76,WSW,253,8.0,8.0,79,0.00,,,0.00,Wunderground v.1.13,2013-01-12 15:32:00,
2013-01-12 09:34:00,12.0,6.7,29.77,SSW,213,9.0,10.0,79,0.00,,,0.00,Wunderground v.1.13,2013-01-12 15:34:00,
2013-01-12 09:40:00,12.0,6.5,29.77,WSW,240,10.0,12.0,78,0.00,,,0.00,Wunderground v.1.13,2013-01-12 15:40:00,
2013-01-12 09:42:00,11.9,6.4,29.77,WSW,240,11.0,12.0,78,0.00,,,0.00,Wunderground v.1.13,2013-01-12 15:42:00,
2013-01-12 09:43:00,11.9,6.4,29.78,West,267,11.0,12.0,78,0.00,,,0.00,Wunderground v.1.13,2013-01-12 15:43:00,
2013-01-12 09:45:00,12.0,6.5,29.78,SW,230,10.0,10.0,78,0.00,,,0.00,Wunderground v.1.13,2013-01-12 15:45:00,
2013-01-12 09:47:00,12.1,6.6,29.78,WSW,256,9.0,10.0,78,0.00,,,0.00,Wunderground v.1.13,2013-01-12 15:47:00,
2013-01-12 09:50:00,12.2,6.9,29.78,West,261,8.0,10.0,79,0.00,,,0.00,Wunderground v.1.13,2013-01-12 15:50:00,
2013-01-12 09:53:00,12.2,6.9,29.79,SSW,196,7.0,10.0,79,0.00,,,0.00,Wunderground v.1.13,2013-01-12 15:53:00,
2013-01-12 09:55:00,12.3,7.0,29.79,West,259,7.0,7.0,79,0.00,,,0.00,Wunderground v.1.13,2013-01-12 15:55:00,
2013-01-12 09:59:00,12.5,7.2,29.79,WSW,248,7.0,12.0,79,0.00,,,0.00,Wunderground v.1.13,2013-01-12 15:59:00,
2013-01-12 10:01:00,12.5,7.2,29.79,SW,229,7.0,7.0,79,0.00,,,0.00,Wunderground v.1.13,2013-01-12 16:01:00,
2013-01-12 10:03:00,12.6,7.3,29.79,West,262,6.0,7.0,79,0.00,,,0.00,Wunderground v.1.13,2013-01-12 16:03:00,
2013-01-12 10:05:00,12.5,6.9,29.79,West,275,8.0,13.0,78,0.00,,,0.00,Wunderground v.1.13,2013-01-12 16:05:00,
2013-01-12 10:06:00,12.4,6.6,29.79,WSW,244,8.0,13.0,77,0.00,,,0.00,Wunderground v.1.13,2013-01-12 16:06:00,
2013-01-12 10:09:00,12.2,6.4,29.80,West,263,9.0,13.0,77,0.00,,,0.00,Wunderground v.1.13,2013-01-12 16:09:00,
2013-01-12 10:12:00,12.2,6.7,29.80,SW,225,9.0,9.0,78,0.00,,,0.00,Wunderground v.1.13,2013-01-12 16:12:00,
2013-01-12 10:16:00,12.5,6.9,29.80,West,276,8.0,9.0,78,0.00,,,0.00,Wunderground v.1.13,2013-01-12 16:16:00,
2013-01-12 10:18:00,12.5,6.9,29.80,WSW,250,7.0,10.0,78,0.00,,,0.00,Wunderground v.1.13,2013-01-12 16:18:00,
2013-01-12 10:22:00,12.5,6.9,29.80,WSW,246,7.0,9.0,78,0.00,,,0.00,Wunderground v.1.13,2013-01-12 16:22:00,
2013-01-12 10:24:00,12.5,6.7,29.80,WSW,248,8.0,9.0,77,0.00,,,0.00,Wunderground v.1.13,2013-01-12 16:24:00,
2013-01-12 10:25:00,12.5,6.7,29.80,SW,223,8.0,8.0,77,0.00,,,0.00,Wunderground v.1.13,2013-01-12 16:25:00,
2013-01-12 10:28:00,12.3,6.5,29.81,WSW,244,8.0,13.0,77,0.00,,,0.00,Wunderground v.1.13,2013-01-12 16:28:00,
2013-01-12 10:29:00,12.2,6.4,29.81,WSW,248,8.0,13.0,77,0.00,,,0.00,Wunderground v.1.13,2013-01-12 16:29:00,
2013-01-12 10:31:00,12.2,6.4,29.81,West,259,8.0,8.0,77,0.00,,,0.00,Wunderground v.1.13,2013-01-12 16:31:00,
2013-01-12 10:34:00,12.2,6.4,29.81,West,269,9.0,14.0,77,0.00,,,0.00,Wunderground v.1.13,2013-01-12 16:34:00,
2013-01-12 10:35:00,12.3,6.2,29.81,WSW,246,9.0,12.0,76,0.00,,,0.00,Wunderground v.1.13,2013-01-12 16:35:00,
2013-01-12 10:37:00,12.3,6.5,29.82,WSW,246,9.0,12.0,77,0.00,,,0.00,Wunderground v.1.13,2013-01-12 16:37:00,
2013-01-12 10:40:00,12.2,6.1,29.82,SW,230,10.0,10.0,76,0.00,,,0.00,Wunderground v.1.13,2013-01-12 16:40:00,
2013-01-12 10:42:00,12.2,6.1,29.82,SW,224,10.0,10.0,76,0.00,,,0.00,Wunderground v.1.13,2013-01-12 16:42:00,
2013-01-12 10:45:00,12.2,6.4,29.83,WSW,244,9.0,9.0,77,0.00,,,0.00,Wunderground v.1.13,2013-01-12 16:45:00,
2013-01-12 10:49:00,12.4,6.6,29.83,WSW,240,8.0,12.0,77,0.00,,,0.00,Wunderground v.1.13,2013-01-12 16:49:00,
2013-01-12 10:51:00,12.4,6.6,29.83,WSW,248,7.0,13.0,77,0.00,,,0.00,Wunderground v.1.13,2013-01-12 16:51:00,
2013-01-12 10:52:00,12.3,6.5,29.83,West,263,7.0,13.0,77,0.00,,,0.00,Wunderground v.1.13,2013-01-12 16:52:00,
2013-01-12 10:53:00,12.3,6.5,29.84,WSW,240,7.0,13.0,77,0.00,,,0.00,Wunderground v.1.13,2013-01-12 16:53:00,
2013-01-12 10:59:00,12.5,6.7,29.84,SW,230,7.0,7.0,77,0.00,,,0.00,Wunderground v.1.13,2013-01-12 16:59:00,
2013-01-12 11:01:00,12.5,6.7,29.84,WSW,249,6.0,10.0,77,0.00,,,0.00,Wunderground v.1.13,2013-01-12 17:01:00,
2013-01-12 11:03:00,12.6,6.8,29.84,WSW,244,6.0,12.0,77,0.00,,,0.00,Wunderground v.1.13,2013-01-12 17:03:00,
2013-01-12 11:04:00,12.6,6.5,29.84,WSW,256,6.0,14.0,76,0.00,,,0.00,Wunderground v.1.13,2013-01-12 17:04:00,
2013-01-12 11:06:00,12.5,6.4,29.84,SW,227,7.0,13.0,76,0.00,,,0.00,Wunderground v.1.13,2013-01-12 17:06:00,
2013-01-12 11:09:00,12.3,6.2,29.84,WSW,257,8.0,13.0,76,0.00,,,0.00,Wunderground v.1.13,2013-01-12 17:09:00,
2013-01-12 11:13:00,12.3,6.2,29.84,WSW,242,8.0,9.0,76,0.00,,,0.00,Wunderground v.1.13,2013-01-12 17:13:00,
2013-01-12 11:15:00,12.4,6.3,29.84,WSW,254,7.0,7.0,76,0.00,,,0.00,Wunderground v.1.13,2013-01-12 17:15:00,
2013-01-12 11:18:00,12.5,6.4,29.84,West,265,7.0,8.0,76,0.00,,,0.00,Wunderground v.1.13,2013-01-12 17:18:00,
2013-01-12 11:19:00,12.6,6.5,29.84,SW,227,6.0,8.0,76,0.00,,,0.00,Wunderground v.1.13,2013-01-12 17:19:00,
2013-01-12 11:21:00,12.7,6.6,29.84,WSW,254,6.0,7.0,76,0.00,,,0.00,Wunderground v.1.13,2013-01-12 17:21:00,
2013-01-12 11:25:00,12.4,6.0,29.84,WSW,244,7.0,7.0,75,0.00,,,0.00,Wunderground v.1.13,2013-01-12 17:25:00,
2013-01-12 11:31:00,12.1,5.7,29.84,WSW,248,8.0,8.0,75,0.00,,,0.00,Wunderground v.1.13,2013-01-12 17:31:00,
2013-01-12 11:33:00,12.3,6.5,29.84,SW,234,7.0,8.0,77,0.00,,,0.00,Wunderground v.1.13,2013-01-12 17:33:00,
2013-01-12 11:35:00,12.3,6.2,29.84,SW,227,8.0,8.0,76,0.00,,,0.00,Wunderground v.1.13,2013-01-12 17:35:00,
2013-01-12 11:37:00,12.2,5.8,29.85,SW,220,8.0,11.0,75,0.00,,,0.00,Wunderground v.1.13,2013-01-12 17:37:00,
2013-01-12 11:40:00,12.2,5.8,29.84,West,267,8.0,12.0,75,0.00,,,0.00,Wunderground v.1.13,2013-01-12 17:40:00,
2013-01-12 11:42:00,12.2,6.1,29.84,WSW,252,8.0,12.0,76,0.00,,,0.00,Wunderground v.1.13,2013-01-12 17:42:00,
2013-01-12 11:44:00,12.3,6.2,29.84,WSW,252,8.0,12.0,76,0.00,,,0.00,Wunderground v.1.13,2013-01-12 17:44:00,
2013-01-12 11:45:00,12.4,6.3,29.85,WSW,248,8.0,8.0,76,0.00,,,0.00,Wunderground v.1.13,2013-01-12 17:45:00,
2013-01-12 11:46:00,12.5,6.4,29.85,West,267,7.0,8.0,76,0.00,,,0.00,Wunderground v.1.13,2013-01-12 17:46:00,
2013-01-12 11:48:00,12.4,6.0,29.85,West,261,7.0,9.0,75,0.00,,,0.00,Wunderground v.1.13,2013-01-12 17:48:00,
2013-01-12 11:51:00,12.4,5.7,29.85,SSW,200,7.0,7.0,74,0.00,,,0.00,Wunderground v.1.13,2013-01-12 17:51:00,
2013-01-12 11:54:00,12.6,6.2,29.85,West,270,7.0,8.0,75,0.00,,,0.00,Wunderground v.1.13,2013-01-12 17:54:00,
2013-01-12 11:55:00,12.6,6.2,29.85,SSW,211,7.0,7.0,75,0.00,,,0.00,Wunderground v.1.13,2013-01-12 17:55:00,
2013-01-12 12:00:00,12.1,5.1,29.85,WSW,238,8.0,10.0,73,0.00,,,0.00,Wunderground v.1.13,2013-01-12 18:00:00,
2013-01-12 12:01:00,12.0,5.0,29.84,WSW,252,9.0,10.0,73,0.00,,,0.00,Wunderground v.1.13,2013-01-12 18:01:00,
2013-01-12 12:05:00,11.6,4.9,29.85,WSW,252,9.0,16.0,74,0.00,,,0.00,Wunderground v.1.13,2013-01-12 18:05:00,
2013-01-12 12:06:00,11.6,4.9,29.85,West,266,10.0,16.0,74,0.00,,,0.00,Wunderground v.1.13,2013-01-12 18:06:00,
2013-01-12 12:11:00,11.7,5.0,29.84,WSW,248,9.0,11.0,74,0.00,,,0.00,Wunderground v.1.13,2013-01-12 18:11:00,
2013-01-12 12:12:00,11.7,5.0,29.85,SW,234,9.0,14.0,74,0.00,,,0.00,Wunderground v.1.13,2013-01-12 18:12:00,
2013-01-12 12:13:00,11.7,5.0,29.85,West,277,10.0,14.0,74,0.00,,,0.00,Wunderground v.1.13,2013-01-12 18:13:00,
2013-01-12 12:18:00,11.7,5.0,29.85,West,266,9.0,11.0,74,0.00,,,0.00,Wunderground v.1.13,2013-01-12 18:18:00,
2013-01-12 12:19:00,11.8,5.1,29.85,WSW,242,9.0,13.0,74,0.00,,,0.00,Wunderground v.1.13,2013-01-12 18:19:00,
2013-01-12 12:24:00,12.2,5.5,29.85,WSW,237,8.0,9.0,74,0.00,,,0.00,Wunderground v.1.13,2013-01-12 18:24:00,
2013-01-12 12:27:00,12.0,5.0,29.85,WSW,244,8.0,11.0,73,0.00,,,0.00,Wunderground v.1.13,2013-01-12 18:27:00,
2013-01-12 12:28:00,11.9,4.9,29.85,WSW,257,8.0,11.0,73,0.00,,,0.00,Wunderground v.1.13,2013-01-12 18:28:00,
2013-01-12 12:31:00,11.8,4.8,29.85,WSW,241,9.0,11.0,73,0.00,,,0.00,Wunderground v.1.13,2013-01-12 18:31:00,
2013-01-12 12:32:00,11.7,4.7,29.85,WSW,237,10.0,15.0,73,0.00,,,0.00,Wunderground v.1.13,2013-01-12 18:32:00,
2013-01-12 12:34:00,11.9,5.2,29.85,WSW,250,10.0,15.0,74,0.00,,,0.00,Wunderground v.1.13,2013-01-12 18:34:00,
2013-01-12 12:38:00,12.0,5.0,29.85,WSW,246,9.0,12.0,73,0.00,,,0.00,Wunderground v.1.13,2013-01-12 18:38:00,
2013-01-12 12:39:00,12.0,5.0,29.85,West,264,9.0,13.0,73,0.00,,,0.00,Wunderground v.1.13,2013-01-12 18:39:00,
2013-01-12 12:40:00,12.0,5.0,29.85,WSW,251,9.0,13.0,73,0.00,,,0.00,Wunderground v.1.13,2013-01-12 18:40:00,
2013-01-12 12:45:00,11.5,4.5,29.85,West,261,10.0,24.0,73,0.00,,,0.00,Wunderground v.1.13,2013-01-12 18:45:00,
2013-01-12 12:46:00,11.5,4.5,29.86,WSW,251,10.0,10.0,73,0.00,,,0.00,Wunderground v.1.13,2013-01-12 18:46:00,
2013-01-12 12:47:00,11.6,4.9,29.86,WSW,238,10.0,13.0,74,0.00,,,0.00,Wunderground v.1.13,2013-01-12 18:47:00,
2013-01-12 12:50:00,11.8,5.1,29.86,WSW,252,10.0,13.0,74,0.00,,,0.00,Wunderground v.1.13,2013-01-12 18:50:00,
2013-01-12 12:53:00,11.9,4.9,29.86,WSW,245,9.0,14.0,73,0.00,,,0.00,Wunderground v.1.13,2013-01-12 18:53:00,
2013-01-12 12:56:00,11.8,4.8,29.86,WSW,256,9.0,9.0,73,0.00,,,0.00,Wunderground v.1.13,2013-01-12 18:56:00,
2013-01-12 12:57:00,11.7,4.7,29.86,West,268,9.0,9.0,73,0.00,,,0.00,Wunderground v.1.13,2013-01-12 18:57:00,
2013-01-12 12:59:00,11.8,4.8,29.86,West,275,9.0,10.0,73,0.00,,,0.00,Wunderground v.1.13,2013-01-12 18:59:00,
2013-01-12 13:03:00,12.0,5.0,29.86,WSW,250,10.0,18.0,73,0.00,,,0.00,Wunderground v.1.13,2013-01-12 19:03:00,
2013-01-12 13:04:00,12.0,5.0,29.86,WSW,240,10.0,18.0,73,0.00,,,0.00,Wunderground v.1.13,2013-01-12 19:04:00,
2013-01-12 13:09:00,11.9,4.9,29.86,West,265,10.0,11.0,73,0.00,,,0.00,Wunderground v.1.13,2013-01-12 19:09:00,
2013-01-12 13:10:00,11.9,4.9,29.86,West,277,10.0,11.0,73,0.00,,,0.00,Wunderground v.1.13,2013-01-12 19:10:00,
2013-01-12 13:11:00,12.0,5.3,29.86,West,268,10.0,11.0,74,0.00,,,0.00,Wunderground v.1.13,2013-01-12 19:11:00,
2013-01-12 13:17:00,11.9,4.9,29.87,WSW,256,9.0,9.0,73,0.00,,,0.00,Wunderground v.1.13,2013-01-12 19:17:00,
2013-01-12 13:18:00,11.9,4.9,29.87,West,279,8.0,12.0,73,0.00,,,0.00,Wunderground v.1.13,2013-01-12 19:18:00,
2013-01-12 13:20:00,11.8,4.5,29.87,WSW,245,9.0,9.0,72,0.00,,,0.00,Wunderground v.1.13,2013-01-12 19:20:00,
2013-01-12 13:24:00,12.0,5.0,29.87,WSW,258,8.0,10.0,73,0.00,,,0.00,Wunderground v.1.13,2013-01-12 19:24:00,
2013-01-12 13:25:00,12.0,5.0,29.87,West,261,8.0,8.0,73,0.00,,,0.00,Wunderground v.1.13,2013-01-12 19:25:00,
2013-01-12 13:28:00,12.1,4.8,29.87,WSW,241,9.0,14.0,72,0.00,,,0.00,Wunderground v.1.13,2013-01-12 19:28:00,
2013-01-12 13:31:00,12.0,5.0,29.87,WSW,248,9.0,9.0,73,0.00,,,0.00,Wunderground v.1.13,2013-01-12 19:31:00,
2013-01-12 13:36:00,11.4,4.1,29.88,West,269,10.0,11.0,72,0.00,,,0.00,Wunderground v.1.13,2013-01-12 19:36:00,
2013-01-12 13:37:00,11.3,4.0,29.88,WSW,240,10.0,11.0,72,0.00,,,0.00,Wunderground v.1.13,2013-01-12 19:37:00,
2013-01-12 13:42:00,11.4,4.4,29.89,WSW,251,10.0,10.0,73,0.00,,,0.00,Wunderground v.1.13,2013-01-12 19:42:00,
2013-01-12 13:45:00,11.4,4.4,29.89,WSW,250,9.0,13.0,73,0.00,,,0.00,Wunderground v.1.13,2013-01-12 19:45:00,
2013-01-12 13:46:00,11.4,4.1,29.89,West,272,9.0,13.0,72,0.00,,,0.00,Wunderground v.1.13,2013-01-12 19:46:00,
2013-01-12 13:48:00,11.4,4.1,29.89,West,277,9.0,13.0,72,0.00,,,0.00,Wunderground v.1.13,2013-01-12 19:48:00,
2013-01-12 13:49:00,11.4,4.1,29.89,WSW,248,9.0,13.0,72,0.00,,,0.00,Wunderground v.1.13,2013-01-12 19:49:00,
2013-01-12 13:52:00,11.2,3.9,29.90,West,270,9.0,11.0,72,0.00,,,0.00,Wunderground v.1.13,2013-01-12 19:52:00,
2013-01-12 13:55:00,11.2,3.9,29.90,WSW,258,9.0,12.0,72,0.00,,,0.00,Wunderground v.1.13,2013-01-12 19:55:00,
2013-01-12 13:56:00,11.2,3.9,29.90,WSW,250,9.0,12.0,72,0.00,,,0.00,Wunderground v.1.13,2013-01-12 19:56:00,
2013-01-12 13:57:00,11.3,4.0,29.90,WSW,256,9.0,12.0,72,0.00,,,0.00,Wunderground v.1.13,2013-01-12 19:57:00,
2013-01-12 14:01:00,11.4,4.1,29.91,WSW,253,8.0,8.0,72,0.00,,,0.00,Wunderground v.1.13,2013-01-12 20:01:00,
2013-01-12 14:02:00,11.4,4.1,29.91,SW,232,8.0,8.0,72,0.00,,,0.00,Wunderground v.1.13,2013-01-12 20:02:00,
2013-01-12 14:03:00,11.4,4.1,29.91,WSW,249,8.0,8.0,72,0.00,,,0.00,Wunderground v.1.13,2013-01-12 20:03:00,
2013-01-12 14:07:00,11.5,4.5,29.92,WSW,248,8.0,10.0,73,0.00,,,0.00,Wunderground v.1.13,2013-01-12 20:07:00,
2013-01-12 14:08:00,11.5,4.2,29.92,WSW,243,8.0,10.0,72,0.00,,,0.00,Wunderground v.1.13,2013-01-12 20:08:00,
2013-01-12 14:09:00,11.5,4.2,29.92,WSW,257,8.0,10.0,72,0.00,,,0.00,Wunderground v.1.13,2013-01-12 20:09:00,
2013-01-12 14:13:00,11.7,4.7,29.92,West,267,7.0,9.0,73,0.00,,,0.00,Wunderground v.1.13,2013-01-12 20:13:00,
2013-01-12 14:17:00,11.6,4.3,29.93,WSW,248,7.0,11.0,72,0.00,,,0.00,Wunderground v.1.13,2013-01-12 20:17:00,
2013-01-12 14:21:00,11.1,3.5,29.93,WSW,240,8.0,16.0,71,0.00,,,0.00,Wunderground v.1.13,2013-01-12 20:21:00,
2013-01-12 14:26:00,10.9,3.6,29.93,WSW,248,9.0,10.0,72,0.00,,,0.00,Wunderground v.1.13,2013-01-12 20:26:00,
2013-01-12 14:27:00,11.0,3.7,29.93,West,259,9.0,13.0,72,0.00,,,0.00,Wunderground v.1.13,2013-01-12 20:27:00,
2013-01-12 14:28:00,11.1,3.8,29.93,WSW,250,9.0,13.0,72,0.00,,,0.00,Wunderground v.1.13,2013-01-12 20:28:00,
2013-01-12 14:30:00,11.3,3.7,29.93,WSW,248,9.0,9.0,71,0.00,,,0.00,Wunderground v.1.13,2013-01-12 20:30:00,
2013-01-12 14:31:00,11.4,3.8,29.93,WSW,249,9.0,9.0,71,0.00,,,0.00,Wunderground v.1.13,2013-01-12 20:31:00,
2013-01-12 14:37:00,11.1,3.2,29.93,WSW,242,9.0,13.0,70,0.00,,,0.00,Wunderground v.1.13,2013-01-12 20:37:00,
2013-01-12 14:38:00,11.1,3.5,29.93,WSW,245,9.0,13.0,71,0.00,,,0.00,Wunderground v.1.13,2013-01-12 20:38:00,
2013-01-12 14:39:00,11.1,3.5,29.93,WSW,252,8.0,13.0,71,0.00,,,0.00,Wunderground v.1.13,2013-01-12 20:39:00,
2013-01-12 14:43:00,10.9,3.3,29.93,WSW,248,9.0,13.0,71,0.00,,,0.00,Wunderground v.1.13,2013-01-12 20:43:00,
2013-01-12 14:45:00,10.9,3.6,29.93,WSW,248,9.0,12.0,72,0.00,,,0.00,Wunderground v.1.13,2013-01-12 20:45:00,
2013-01-12 14:49:00,10.8,3.5,29.93,West,263,9.0,18.0,72,0.00,,,0.00,Wunderground v.1.13,2013-01-12 20:49:00,
2013-01-12 14:52:00,10.9,3.3,29.93,West,262,10.0,10.0,71,0.00,,,0.00,Wunderground v.1.13,2013-01-12 20:52:00,
2013-01-12 14:53:00,10.9,3.3,29.93,West,268,10.0,11.0,71,0.00,,,0.00,Wunderground v.1.13,2013-01-12 20:53:00,
2013-01-12 14:54:00,10.8,3.2,29.93,West,269,11.0,11.0,71,0.00,,,0.00,Wunderground v.1.13,2013-01-12 20:54:00,
2013-01-12 14:56:00,10.8,3.2,29.93,WSW,245,10.0,10.0,71,0.00,,,0.00,Wunderground v.1.13,2013-01-12 20:56:00,
2013-01-12 15:00:00,10.8,3.5,29.93,West,259,9.0,10.0,72,0.00,,,0.00,Wunderground v.1.13,2013-01-12 21:00:00,
2013-01-12 15:03:00,10.8,3.5,29.94,West,261,9.0,15.0,72,0.00,,,0.00,Wunderground v.1.13,2013-01-12 21:03:00,
2013-01-12 15:06:00,10.8,3.5,29.94,WSW,244,9.0,12.0,72,0.00,,,0.00,Wunderground v.1.13,2013-01-12 21:06:00,
2013-01-12 15:08:00,10.7,3.4,29.94,West,277,9.0,16.0,72,0.00,,,0.00,Wunderground v.1.13,2013-01-12 21:08:00,
2013-01-12 15:12:00,10.4,3.2,29.95,West,259,9.0,12.0,72,0.00,,,0.00,Wunderground v.1.13,2013-01-12 21:12:00,
2013-01-12 15:13:00,10.4,3.2,29.95,WSW,251,9.0,12.0,72,0.00,,,0.00,Wunderground v.1.13,2013-01-12 21:13:00,
2013-01-12 15:18:00,10.3,3.4,29.95,WSW,244,8.0,10.0,73,0.00,,,0.00,Wunderground v.1.13,2013-01-12 21:18:00,
2013-01-12 15:24:00,10.3,3.1,29.95,West,259,7.0,10.0,72,0.00,,,0.00,Wunderground v.1.13,2013-01-12 21:24:00,
2013-01-12 15:25:00,10.3,3.1,29.95,West,261,8.0,8.0,72,0.00,,,0.00,Wunderground v.1.13,2013-01-12 21:25:00,
2013-01-12 15:26:00,10.3,3.1,29.95,West,281,8.0,9.0,72,0.00,,,0.00,Wunderground v.1.13,2013-01-12 21:26:00,
2013-01-12 15:30:00,10.3,3.1,29.95,SW,234,8.0,9.0,72,0.00,,,0.00,Wunderground v.1.13,2013-01-12 21:30:00,
2013-01-12 15:32:00,10.2,3.0,29.96,SW,227,8.0,11.0,72,0.00,,,0.00,Wunderground v.1.13,2013-01-12 21:32:00,
2013-01-12 15:37:00,10.0,2.8,29.96,West,275,8.0,10.0,72,0.00,,,0.00,Wunderground v.1.13,2013-01-12 21:37:00,
2013-01-12 15:39:00,9.9,3.0,29.96,West,271,8.0,11.0,73,0.00,,,0.00,Wunderground v.1.13,2013-01-12 21:39:00,
2013-01-12 15:43:00,9.7,2.5,29.96,West,263,8.0,10.0,72,0.00,,,0.00,Wunderground v.1.13,2013-01-12 21:43:00,
2013-01-12 15:45:00,9.7,2.8,29.96,West,273,8.0,8.0,73,0.00,,,0.00,Wunderground v.1.13,2013-01-12 21:45:00,
2013-01-12 15:49:00,9.7,2.5,29.96,WSW,249,8.0,14.0,72,0.00,,,0.00,Wunderground v.1.13,2013-01-12 21:49:00,
2013-01-12 15:51:00,9.6,2.4,29.96,WSW,245,8.0,9.0,72,0.00,,,0.00,Wunderground v.1.13,2013-01-12 21:51:00,
2013-01-12 15:57:00,9.7,2.5,29.97,WSW,252,8.0,8.0,72,0.00,,,0.00,Wunderground v.1.13,2013-01-12 21:57:00,
2013-01-12 15:59:00,9.6,2.1,29.97,WSW,258,8.0,10.0,71,0.00,,,0.00,Wunderground v.1.13,2013-01-12 21:59:00,
2013-01-12 16:03:00,9.5,2.3,29.97,WSW,245,8.0,11.0,72,0.00,,,0.00,Wunderground v.1.13,2013-01-12 22:03:00,
2013-01-12 16:06:00,9.5,2.3,29.97,WSW,255,9.0,15.0,72,0.00,,,0.00,Wunderground v.1.13,2013-01-12 22:06:00,
2013-01-12 16:09:00,9.5,2.6,29.97,WSW,253,8.0,15.0,73,0.00,,,0.00,Wunderground v.1.13,2013-01-12 22:09:00,
2013-01-12 16:10:00,9.5,2.6,29.97,WSW,250,7.0,7.0,73,0.00,,,0.00,Wunderground v.1.13,2013-01-12 22:10:00,
2013-01-12 16:13:00,9.4,2.2,29.97,West,264,8.0,12.0,72,0.00,,,0.00,Wunderground v.1.13,2013-01-12 22:13:00,
2013-01-12 16:15:00,9.4,2.2,29.97,WSW,243,7.0,7.0,72,0.00,,,0.00,Wunderground v.1.13,2013-01-12 22:15:00,
2013-01-12 16:21:00,9.1,1.9,29.97,WSW,250,8.0,11.0,72,0.00,,,0.00,Wunderground v.1.13,2013-01-12 22:21:00,
2013-01-12 16:23:00,9.1,1.9,29.97,WSW,249,8.0,13.0,72,0.00,,,0.00,Wunderground v.1.13,2013-01-12 22:23:00,
2013-01-12 16:28:00,9.0,2.1,29.96,WSW,243,9.0,12.0,73,0.00,,,0.00,Wunderground v.1.13,2013-01-12 22:28:00,
2013-01-12 16:31:00,8.9,2.0,29.96,WSW,250,8.0,9.0,73,0.00,,,0.00,Wunderground v.1.13,2013-01-12 22:31:00,
2013-01-12 16:37:00,8.8,2.2,29.96,West,264,8.0,9.0,74,0.00,,,0.00,Wunderground v.1.13,2013-01-12 22:37:00,
2013-01-12 16:38:00,8.8,2.2,29.96,WSW,242,8.0,12.0,74,0.00,,,0.00,Wunderground v.1.13,2013-01-12 22:38:00,
2013-01-12 16:44:00,8.7,2.1,29.97,WSW,248,8.0,9.0,74,0.00,,,0.00,Wunderground v.1.13,2013-01-12 22:44:00,
2013-01-12 16:45:00,8.7,2.1,29.97,WSW,254,8.0,8.0,74,0.00,,,0.00,Wunderground v.1.13,2013-01-12 22:45:00,
2013-01-12 16:48:00,8.6,2.0,29.97,WSW,248,7.0,10.0,74,0.00,,,0.00,Wunderground v.1.13,2013-01-12 22:48:00,
2013-01-12 16:51:00,8.5,1.9,29.97,West,260,7.0,11.0,74,0.00,,,0.00,Wunderground v.1.13,2013-01-12 22:51:00,
2013-01-12 16:52:00,8.5,1.9,29.97,WSW,252,7.0,11.0,74,0.00,,,0.00,Wunderground v.1.13,2013-01-12 22:52:00,
2013-01-12 16:58:00,8.5,2.2,29.98,WNW,294,7.0,9.0,75,0.00,,,0.00,Wunderground v.1.13,2013-01-12 22:58:00,
2013-01-12 17:02:00,8.5,2.2,30.00,West,261,7.0,8.0,75,0.00,,,0.00,Wunderground v.1.13,2013-01-12 23:02:00,
2013-01-12 17:03:00,8.5,2.2,30.00,West,263,7.0,8.0,75,0.00,,,0.00,Wunderground v.1.13,2013-01-12 23:03:00,
2013-01-12 17:05:00,8.5,2.2,29.99,West,267,7.0,11.0,75,0.00,,,0.00,Wunderground v.1.13,2013-01-12 23:05:00,
2013-01-12 17:08:00,8.4,1.8,29.99,WSW,244,7.0,11.0,74,0.00,,,0.00,Wunderground v.1.13,2013-01-12 23:08:00,
2013-01-12 17:09:00,8.4,2.1,30.00,WSW,248,7.0,11.0,75,0.00,,,0.00,Wunderground v.1.13,2013-01-12 23:09:00,
2013-01-12 17:11:00,8.4,2.1,30.00,West,263,7.0,8.0,75,0.00,,,0.00,Wunderground v.1.13,2013-01-12 23:11:00,
2013-01-12 17:14:00,8.4,1.8,29.99,WSW,244,7.0,8.0,74,0.00,,,0.00,Wunderground v.1.13,2013-01-12 23:14:00,
2013-01-12 17:15:00,8.4,1.8,29.99,West,259,7.0,7.0,74,0.00,,,0.00,Wunderground v.1.13,2013-01-12 23:15:00,
2013-01-12 17:16:00,8.4,2.1,29.99,WSW,255,6.0,7.0,75,0.00,,,0.00,Wunderground v.1.13,2013-01-12 23:16:00,
2013-01-12 17:20:00,8.2,1.9,30.00,WNW,284,7.0,9.0,75,0.00,,,0.00,Wunderground v.1.13,2013-01-12 23:20:00,
2013-01-12 17:24:00,8.1,1.8,30.00,WSW,253,8.0,11.0,75,0.00,,,0.00,Wunderground v.1.13,2013-01-12 23:24:00,
2013-01-12 17:28:00,8.0,1.4,30.00,WSW,248,8.0,8.0,74,0.00,,,0.00,Wunderground v.1.13,2013-01-12 23:28:00,
2013-01-12 17:30:00,8.0,1.7,30.00,West,260,8.0,8.0,75,0.00,,,0.00,Wunderground v.1.13,2013-01-12 23:30:00,
2013-01-12 17:33:00,8.0,1.7,30.01,West,263,7.0,8.0,75,0.00,,,0.00,Wunderground v.1.13,2013-01-12 23:33:00,
2013-01-12 17:35:00,7.9,1.6,30.01,WSW,253,7.0,7.0,75,0.00,,,0.00,Wunderground v.1.13,2013-01-12 23:35:00,
2013-01-12 17:39:00,7.8,1.5,30.01,West,260,7.0,10.0,75,0.00,,,0.00,Wunderground v.1.13,2013-01-12 23:39:00,
2013-01-12 17:40:00,7.8,1.5,30.01,WSW,250,7.0,7.0,75,0.00,,,0.00,Wunderground v.1.13,2013-01-12 23:40:00,
2013-01-12 17:41:00,7.8,1.5,30.02,WSW,248,7.0,7.0,75,0.00,,,0.00,Wunderground v.1.13,2013-01-12 23:41:00,
2013-01-12 17:47:00,7.7,1.4,30.02,WSW,254,6.0,7.0,75,0.00,,,0.00,Wunderground v.1.13,2013-01-12 23:47:00,
2013-01-12 17:48:00,7.7,1.4,30.02,West,267,6.0,7.0,75,0.00,,,0.00,Wunderground v.1.13,2013-01-12 23:48:00,
2013-01-12 17:54:00,7.7,1.4,30.03,West,261,5.0,6.0,75,0.00,,,0.00,Wunderground v.1.13,2013-01-12 23:54:00,
2013-01-12 17:55:00,7.6,1.3,30.03,West,260,4.0,4.0,75,0.00,,,0.00,Wunderground v.1.13,2013-01-12 23:55:00,
2013-01-12 17:59:00,7.6,1.6,30.02,WSW,250,3.0,9.0,76,0.00,,,0.00,Wunderground v.1.13,2013-01-12 23:59:00,
2013-01-12 18:01:00,7.6,1.6,30.03,WSW,251,3.0,3.0,76,0.00,,,0.00,Wunderground v.1.13,2013-01-13 00:01:00,
2013-01-12 18:05:00,7.6,1.6,30.03,SW,229,2.0,2.0,76,0.00,,,0.00,Wunderground v.1.13,2013-01-13 00:05:00,
2013-01-12 18:11:00,7.5,1.2,30.03,West,260,4.0,8.0,75,0.00,,,0.00,Wunderground v.1.13,2013-01-13 00:11:00,
2013-01-12 18:16:00,7.4,1.4,30.03,West,269,4.0,4.0,76,0.00,,,0.00,Wunderground v.1.13,2013-01-13 00:16:00,
2013-01-12 18:22:00,7.3,1.0,30.03,West,266,3.0,4.0,75,0.00,,,0.00,Wunderground v.1.13,2013-01-13 00:22:00,
2013-01-12 18:28:00,7.2,0.9,30.03,West,265,4.0,7.0,75,0.00,,,0.00,Wunderground v.1.13,2013-01-13 00:28:00,
2013-01-12 18:30:00,7.2,1.2,30.03,WSW,244,4.0,6.0,76,0.00,,,0.00,Wunderground v.1.13,2013-01-13 00:30:00,
2013-01-12 18:31:00,7.2,1.2,30.03,WSW,240,4.0,6.0,76,0.00,,,0.00,Wunderground v.1.13,2013-01-13 00:31:00,
2013-01-12 18:32:00,7.2,1.2,30.03,WSW,242,4.0,6.0,76,0.00,,,0.00,Wunderground v.1.13,2013-01-13 00:32:00,
2013-01-12 18:36:00,7.1,1.1,30.03,WSW,250,4.0,4.0,76,0.00,,,0.00,Wunderground v.1.13,2013-01-13 00:36:00,
2013-01-12 18:39:00,7.0,1.0,30.02,WSW,252,4.0,5.0,76,0.00,,,0.00,Wunderground v.1.13,2013-01-13 00:39:00,
2013-01-12 18:43:00,6.9,0.9,30.03,WSW,249,4.0,7.0,76,0.00,,,0.00,Wunderground v.1.13,2013-01-13 00:43:00,
2013-01-12 18:44:00,6.9,0.9,30.03,WSW,257,4.0,8.0,76,0.00,,,0.00,Wunderground v.1.13,2013-01-13 00:44:00,
2013-01-12 18:49:00,6.8,0.8,30.02,WSW,250,4.0,6.0,76,0.00,,,0.00,Wunderground v.1.13,2013-01-13 00:49:00,
2013-01-12 18:50:00,6.8,0.8,30.02,WSW,244,4.0,6.0,76,0.00,,,0.00,Wunderground v.1.13,2013-01-13 00:50:00,
2013-01-12 18:53:00,6.7,0.7,30.02,WSW,250,4.0,6.0,76,0.00,,,0.00,Wunderground v.1.13,2013-01-13 00:53:00,
2013-01-12 18:57:00,6.7,0.7,30.02,WSW,240,4.0,10.0,76,0.00,,,0.00,Wunderground v.1.13,2013-01-13 00:57:00,
2013-01-12 18:59:00,6.7,0.7,30.02,West,267,5.0,10.0,76,0.00,,,0.00,Wunderground v.1.13,2013-01-13 00:59:00,
2013-01-12 19:00:00,6.6,0.6,30.02,WSW,251,5.0,8.0,76,0.00,,,0.00,Wunderground v.1.13,2013-01-13 01:00:00,
2013-01-12 19:03:00,6.6,0.6,30.02,WSW,250,5.0,8.0,76,0.00,,,0.00,Wunderground v.1.13,2013-01-13 01:03:00,
2013-01-12 19:09:00,6.5,0.5,30.03,West,275,5.0,6.0,76,0.00,,,0.00,Wunderground v.1.13,2013-01-13 01:09:00,
2013-01-12 19:15:00,6.5,0.5,30.03,WSW,250,5.0,5.0,76,0.00,,,0.00,Wunderground v.1.13,2013-01-13 01:15:00,
2013-01-12 19:16:00,6.5,0.8,30.03,WSW,249,5.0,6.0,77,0.00,,,0.00,Wunderground v.1.13,2013-01-13 01:16:00,
2013-01-12 19:17:00,6.5,0.8,30.03,WSW,242,5.0,6.0,77,0.00,,,0.00,Wunderground v.1.13,2013-01-13 01:17:00,
2013-01-12 19:18:00,6.5,0.8,30.03,WSW,244,5.0,6.0,77,0.00,,,0.00,Wunderground v.1.13,2013-01-13 01:18:00,
2013-01-12 19:20:00,6.4,0.7,30.04,WSW,249,5.0,8.0,77,0.00,,,0.00,Wunderground v.1.13,2013-01-13 01:20:00,
2013-01-12 19:21:00,6.4,0.7,30.04,WSW,249,5.0,8.0,77,0.00,,,0.00,Wunderground v.1.13,2013-01-13 01:21:00,
2013-01-12 19:26:00,6.4,0.7,30.04,WSW,250,5.0,5.0,77,0.00,,,0.00,Wunderground v.1.13,2013-01-13 01:26:00,
2013-01-12 19:27:00,6.4,0.7,30.04,WSW,256,5.0,5.0,77,0.00,,,0.00,Wunderground v.1.13,2013-01-13 01:27:00,
2013-01-12 19:31:00,6.4,0.7,30.04,WSW,249,4.0,5.0,77,0.00,,,0.00,Wunderground v.1.13,2013-01-13 01:31:00,
2013-01-12 19:32:00,6.4,0.7,30.04,WSW,250,4.0,5.0,77,0.00,,,0.00,Wunderground v.1.13,2013-01-13 01:32:00,
2013-01-12 19:36:00,6.3,0.6,30.04,WSW,253,4.0,6.0,77,0.00,,,0.00,Wunderground v.1.13,2013-01-13 01:36:00,
2013-01-12 19:42:00,6.2,0.5,30.04,WSW,241,4.0,6.0,77,0.00,,,0.00,Wunderground v.1.13,2013-01-13 01:42:00,
2013-01-12 19:44:00,6.2,0.5,30.04,West,263,5.0,6.0,77,0.00,,,0.00,Wunderground v.1.13,2013-01-13 01:44:00,
2013-01-12 19:47:00,6.1,0.7,30.03,West,261,5.0,7.0,78,0.00,,,0.00,Wunderground v.1.13,2013-01-13 01:47:00,
2013-01-12 19:53:00,6.0,0.6,30.04,WSW,251,5.0,9.0,78,0.00,,,0.00,Wunderground v.1.13,2013-01-13 01:53:00,
2013-01-12 19:59:00,5.9,0.5,30.04,WSW,256,6.0,7.0,78,0.00,,,0.00,Wunderground v.1.13,2013-01-13 01:59:00,
2013-01-12 20:01:00,5.9,0.5,30.05,West,259,6.0,6.0,78,0.00,,,0.00,Wunderground v.1.13,2013-01-13 02:01:00,
2013-01-12 20:05:00,5.8,0.4,30.05,WSW,254,5.0,6.0,78,0.00,,,0.00,Wunderground v.1.13,2013-01-13 02:05:00,
2013-01-12 20:06:00,5.8,0.4,30.05,WSW,254,5.0,6.0,78,0.00,,,0.00,Wunderground v.1.13,2013-01-13 02:06:00,
2013-01-12 20:09:00,5.8,0.4,30.05,West,262,5.0,6.0,78,0.00,,,0.00,Wunderground v.1.13,2013-01-13 02:09:00,
2013-01-12 20:11:00,5.8,0.4,30.05,WSW,246,5.0,10.0,78,0.00,,,0.00,Wunderground v.1.13,2013-01-13 02:11:00,
2013-01-12 20:16:00,5.7,0.3,30.06,West,259,6.0,6.0,78,0.00,,,0.00,Wunderground v.1.13,2013-01-13 02:16:00,
2013-01-12 20:17:00,5.7,0.3,30.06,WSW,251,6.0,8.0,78,0.00,,,0.00,Wunderground v.1.13,2013-01-13 02:17:00,
2013-01-12 20:22:00,5.7,0.3,30.07,WSW,243,6.0,7.0,78,0.00,,,0.00,Wunderground v.1.13,2013-01-13 02:22:00,
2013-01-12 20:24:00,5.6,0.2,30.07,WSW,256,6.0,7.0,78,0.00,,,0.00,Wunderground v.1.13,2013-01-13 02:24:00,
2013-01-12 20:25:00,5.6,0.2,30.07,WSW,242,6.0,7.0,78,0.00,,,0.00,Wunderground v.1.13,2013-01-13 02:25:00,
2013-01-12 20:29:00,5.5,0.1,30.06,WSW,254,7.0,8.0,78,0.00,,,0.00,Wunderground v.1.13,2013-01-13 02:29:00,
2013-01-12 20:31:00,5.5,0.1,30.06,WSW,252,7.0,7.0,78,0.00,,,0.00,Wunderground v.1.13,2013-01-13 02:31:00,
2013-01-12 20:34:00,5.4,0.0,30.06,WSW,250,7.0,7.0,78,0.00,,,0.00,Wunderground v.1.13,2013-01-13 02:34:00,
2013-01-12 20:36:00,5.4,0.0,30.06,WSW,248,7.0,7.0,78,0.00,,,0.00,Wunderground v.1.13,2013-01-13 02:36:00,
2013-01-12 20:37:00,5.4,2.6,30.05,West,281,7.0,7.0,88,0.00,,,0.00,Wunderground v.1.13,2013-01-13 02:37:00,
2013-01-12 20:38:00,5.4,0.0,30.05,West,263,7.0,7.0,78,0.00,,,0.00,Wunderground v.1.13,2013-01-13 02:38:00,
2013-01-12 20:41:00,5.3,-0.1,30.05,WSW,256,6.0,6.0,78,0.00,,,0.00,Wunderground v.1.13,2013-01-13 02:41:00,
2013-01-12 20:42:00,5.3,0.2,30.05,WSW,247,6.0,8.0,79,0.00,,,0.00,Wunderground v.1.13,2013-01-13 02:42:00,
2013-01-12 20:43:00,5.3,0.2,30.05,WSW,249,6.0,8.0,79,0.00,,,0.00,Wunderground v.1.13,2013-01-13 02:43:00,
2013-01-12 20:47:00,5.1,0.0,30.07,WSW,253,5.0,6.0,79,0.00,,,0.00,Wunderground v.1.13,2013-01-13 02:47:00,
2013-01-12 20:48:00,5.2,0.1,30.07,WSW,249,5.0,6.0,79,0.00,,,0.00,Wunderground v.1.13,2013-01-13 02:48:00,
2013-01-12 20:54:00,5.1,0.0,30.07,WSW,254,5.0,7.0,79,0.00,,,0.00,Wunderground v.1.13,2013-01-13 02:54:00,
2013-01-12 20:57:00,5.0,-0.1,30.06,West,271,5.0,5.0,79,0.00,,,0.00,Wunderground v.1.13,2013-01-13 02:57:00,
2013-01-12 21:00:00,5.0,-0.1,30.06,West,263,6.0,6.0,79,0.00,,,0.00,Wunderground v.1.13,2013-01-13 03:00:00,
2013-01-12 21:01:00,5.0,-0.1,30.06,West,273,6.0,7.0,79,0.00,,,0.00,Wunderground v.1.13,2013-01-13 03:01:00,
2013-01-12 21:05:00,4.9,-0.2,30.05,West,261,5.0,7.0,79,0.00,,,0.00,Wunderground v.1.13,2013-01-13 03:05:00,
2013-01-12 21:06:00,4.9,-0.2,30.05,West,261,5.0,7.0,79,0.00,,,0.00,Wunderground v.1.13,2013-01-13 03:06:00,
2013-01-12 21:11:00,4.8,-0.3,30.07,WSW,256,5.0,6.0,79,0.00,,,0.00,Wunderground v.1.13,2013-01-13 03:11:00,
2013-01-12 21:12:00,4.8,-0.3,30.07,West,262,5.0,7.0,79,0.00,,,0.00,Wunderground v.1.13,2013-01-13 03:12:00,
2013-01-12 21:16:00,4.7,-0.4,30.07,WSW,242,5.0,6.0,79,0.00,,,0.00,Wunderground v.1.13,2013-01-13 03:16:00,
2013-01-12 21:17:00,4.7,-0.4,30.07,West,260,6.0,6.0,79,0.00,,,0.00,Wunderground v.1.13,2013-01-13 03:17:00,
2013-01-12 21:20:00,4.6,-0.5,30.07,West,276,6.0,6.0,79,0.00,,,0.00,Wunderground v.1.13,2013-01-13 03:20:00,
2013-01-12 21:23:00,4.6,-0.5,30.07,West,259,5.0,6.0,79,0.00,,,0.00,Wunderground v.1.13,2013-01-13 03:23:00,
2013-01-12 21:25:00,4.5,-0.8,30.08,WSW,251,5.0,5.0,78,0.00,,,0.00,Wunderground v.1.13,2013-01-13 03:25:00,
2013-01-12 21:26:00,4.5,-0.8,30.07,WSW,251,5.0,5.0,78,0.00,,,0.00,Wunderground v.1.13,2013-01-13 03:26:00,
2013-01-12 21:31:00,4.4,-0.9,30.07,WNW,289,4.0,5.0,78,0.00,,,0.00,Wunderground v.1.13,2013-01-13 03:31:00,
2013-01-12 21:37:00,4.3,-1.0,30.08,WSW,253,4.0,5.0,78,0.00,,,0.00,Wunderground v.1.13,2013-01-13 03:37:00,
2013-01-12 21:39:00,4.3,-1.0,30.08,WSW,251,4.0,7.0,78,0.00,,,0.00,Wunderground v.1.13,2013-01-13 03:39:00,
2013-01-12 21:43:00,4.2,-1.1,30.09,WSW,248,4.0,8.0,78,0.00,,,0.00,Wunderground v.1.13,2013-01-13 03:43:00,
2013-01-12 21:46:00,4.2,-1.4,30.08,West,265,5.0,8.0,77,0.00,,,0.00,Wunderground v.1.13,2013-01-13 03:46:00,
2013-01-12 21:51:00,4.1,-1.2,30.08,WSW,248,6.0,7.0,78,0.00,,,0.00,Wunderground v.1.13,2013-01-13 03:51:00,
2013-01-12 21:52:00,4.1,-1.2,30.08,WSW,252,6.0,7.0,78,0.00,,,0.00,Wunderground v.1.13,2013-01-13 03:52:00,
2013-01-12 21:58:00,4.0,-1.3,30.08,WSW,255,5.0,5.0,78,0.00,,,0.00,Wunderground v.1.13,2013-01-13 03:58:00,
2013-01-12 21:59:00,4.0,-1.3,30.08,WSW,255,5.0,5.0,78,0.00,,,0.00,Wunderground v.1.13,2013-01-13 03:59:00,
2013-01-12 22:04:00,3.9,-1.4,30.08,WSW,252,4.0,8.0,78,0.00,,,0.00,Wunderground v.1.13,2013-01-13 04:04:00,
2013-01-12 22:06:00,3.8,-1.5,30.07,WSW,257,5.0,7.0,78,0.00,,,0.00,Wunderground v.1.13,2013-01-13 04:06:00,
2013-01-12 22:12:00,3.7,-1.6,30.07,West,265,5.0,5.0,78,0.00,,,0.00,Wunderground v.1.13,2013-01-13 04:12:00,
2013-01-12 22:14:00,3.7,-1.6,30.07,West,263,5.0,5.0,78,0.00,,,0.00,Wunderground v.1.13,2013-01-13 04:14:00,
2013-01-12 22:16:00,3.6,-1.7,30.07,West,261,4.0,5.0,78,0.00,,,0.00,Wunderground v.1.13,2013-01-13 04:16:00,
2013-01-12 22:18:00,3.6,-1.7,30.07,West,259,4.0,5.0,78,0.00,,,0.00,Wunderground v.1.13,2013-01-13 04:18:00,
2013-01-12 22:19:00,3.6,-1.7,30.07,WSW,257,4.0,5.0,78,0.00,,,0.00,Wunderground v.1.13,2013-01-13 04:19:00,
2013-01-12 22:22:00,3.5,-1.8,30.07,WSW,257,4.0,5.0,78,0.00,,,0.00,Wunderground v.1.13,2013-01-13 04:22:00,
2013-01-12 22:23:00,3.5,-1.8,30.08,WSW,257,4.0,5.0,78,0.00,,,0.00,Wunderground v.1.13,2013-01-13 04:23:00,
2013-01-12 22:28:00,3.4,-1.9,30.07,West,268,4.0,6.0,78,0.00,,,0.00,Wunderground v.1.13,2013-01-13 04:28:00,
2013-01-12 22:30:00,3.3,-2.0,30.07,West,268,4.0,4.0,78,0.00,,,0.00,Wunderground v.1.13,2013-01-13 04:30:00,
2013-01-12 22:33:00,3.3,-1.7,30.07,West,269,4.0,4.0,79,0.00,,,0.00,Wunderground v.1.13,2013-01-13 04:33:00,
2013-01-12 22:36:00,3.3,-1.7,30.07,West,267,4.0,5.0,79,0.00,,,0.00,Wunderground v.1.13,2013-01-13 04:36:00,
2013-01-12 22:37:00,3.3,-1.7,30.07,West,267,4.0,5.0,79,0.00,,,0.00,Wunderground v.1.13,2013-01-13 04:37:00,
2013-01-12 22:41:00,3.3,-1.7,30.07,West,264,4.0,4.0,79,0.00,,,0.00,Wunderground v.1.13,2013-01-13 04:41:00,
2013-01-12 22:43:00,3.2,-1.8,30.07,West,265,4.0,4.0,79,0.00,,,0.00,Wunderground v.1.13,2013-01-13 04:43:00,
2013-01-12 22:47:00,3.2,-1.8,30.08,West,265,3.0,4.0,79,0.00,,,0.00,Wunderground v.1.13,2013-01-13 04:47:00,
2013-01-12 22:48:00,3.2,-1.8,30.08,West,265,3.0,4.0,79,0.00,,,0.00,Wunderground v.1.13,2013-01-13 04:48:00,
2013-01-12 22:50:00,3.2,-1.8,30.08,West,265,3.0,3.0,79,0.00,,,0.00,Wunderground v.1.13,2013-01-13 04:50:00,
2013-01-12 22:55:00,3.1,-1.9,30.08,West,265,2.0,3.0,79,0.00,,,0.00,Wunderground v.1.13,2013-01-13 04:55:00,
2013-01-12 22:56:00,3.1,-1.9,30.07,West,265,2.0,3.0,79,0.00,,,0.00,Wunderground v.1.13,2013-01-13 04:56:00,
2013-01-12 22:57:00,3.1,-1.9,30.07,West,265,2.0,3.0,79,0.00,,,0.00,Wunderground v.1.13,2013-01-13 04:57:00,
2013-01-12 23:00:00,3.1,-1.9,30.07,West,265,2.0,2.0,79,0.00,,,0.00,Wunderground v.1.13,2013-01-13 05:00:00,
2013-01-12 23:03:00,3.0,-2.0,30.07,West,265,2.0,2.0,79,0.00,,,0.00,Wunderground v.1.13,2013-01-13 05:03:00,
2013-01-12 23:04:00,3.0,-2.0,30.07,West,264,2.0,5.0,79,0.00,,,0.00,Wunderground v.1.13,2013-01-13 05:04:00,
2013-01-12 23:09:00,2.9,-2.1,30.08,West,264,3.0,5.0,79,0.00,,,0.00,Wunderground v.1.13,2013-01-13 05:09:00,
2013-01-12 23:10:00,2.9,-2.1,30.08,West,265,3.0,3.0,79,0.00,,,0.00,Wunderground v.1.13,2013-01-13 05:10:00,
2013-01-12 23:11:00,2.9,-2.1,30.08,West,265,3.0,3.0,79,0.00,,,0.00,Wunderground v.1.13,2013-01-13 05:11:00,
2013-01-12 23:12:00,2.8,-2.2,30.08,West,265,3.0,5.0,79,0.00,,,0.00,Wunderground v.1.13,2013-01-13 05:12:00,
2013-01-12 23:17:00,2.9,-2.1,30.08,WSW,248,4.0,6.0,79,0.00,,,0.00,Wunderground v.1.13,2013-01-13 05:17:00,
2013-01-12 23:18:00,2.9,-2.1,30.09,WSW,250,4.0,6.0,79,0.00,,,0.00,Wunderground v.1.13,2013-01-13 05:18:00,
2013-01-12 23:19:00,2.9,-2.1,30.08,WSW,252,4.0,6.0,79,0.00,,,0.00,Wunderground v.1.13,2013-01-13 05:19:00,
2013-01-12 23:24:00,3.0,-2.0,30.08,West,263,4.0,4.0,79,0.00,,,0.00,Wunderground v.1.13,2013-01-13 05:24:00,
2013-01-12 23:25:00,2.9,-2.1,30.08,West,263,3.0,3.0,79,0.00,,,0.00,Wunderground v.1.13,2013-01-13 05:25:00,
2013-01-12 23:26:00,2.9,-2.1,30.09,West,263,3.0,4.0,79,0.00,,,0.00,Wunderground v.1.13,2013-01-13 05:26:00,
2013-01-12 23:27:00,2.9,-2.1,30.08,West,263,3.0,4.0,79,0.00,,,0.00,Wunderground v.1.13,2013-01-13 05:27:00,
2013-01-12 23:30:00,2.9,-2.1,30.09,WSW,254,3.0,4.0,79,0.00,,,0.00,Wunderground v.1.13,2013-01-13 05:30:00,
2013-01-12 23:31:00,2.9,-2.1,30.07,West,265,4.0,4.0,79,0.00,,,0.00,Wunderground v.1.13,2013-01-13 05:31:00,
2013-01-12 23:32:00,2.9,-2.1,30.08,West,265,4.0,4.0,79,0.00,,,0.00,Wunderground v.1.13,2013-01-13 05:32:00,
2013-01-12 23:37:00,2.9,-2.1,30.09,West,263,4.0,4.0,79,0.00,,,0.00,Wunderground v.1.13,2013-01-13 05:37:00,
2013-01-12 23:38:00,2.9,-2.1,30.08,West,263,4.0,4.0,79,0.00,,,0.00,Wunderground v.1.13,2013-01-13 05:38:00,
2013-01-12 23:44:00,2.8,-2.2,30.07,West,263,3.0,5.0,79,0.00,,,0.00,Wunderground v.1.13,2013-01-13 05:44:00,
2013-01-12 23:45:00,2.8,-2.2,30.07,West,263,3.0,3.0,79,0.00,,,0.00,Wunderground v.1.13,2013-01-13 05:45:00,
2013-01-12 23:51:00,2.7,-2.1,30.07,West,267,2.0,4.0,80,0.00,,,0.00,Wunderground v.1.13,2013-01-13 05:51:00,
2013-01-12 23:53:00,2.7,-2.3,30.07,West,267,2.0,5.0,79,0.00,,,0.00,Wunderground v.1.13,2013-01-13 05:53:00,
2013-01-12 23:57:00,2.6,-2.4,30.08,West,263,3.0,5.0,79,0.00,,,0.00,Wunderground v.1.13,2013-01-13 05:57:00,
2013-01-12 23:58:00,2.6,-2.4,30.07,West,263,3.0,5.0,79,0.00,,,0.00,Wunderground v.1.13,2013-01-13 05:58:00,